GFSFLT1_250_rhum_000.txt.gz
RH
100 98 72 72 61 54 62 64 56 43 42 40 46 50 35 28 22 20 17 20 24 26 27 29 30 28 27 25 25 27 36 41 41
98 100 82 74 67 59 58 56 54 49 58 53 40 35 28 23 21 18 24 28 29 28 29 29 30 25 28 32 38 50 47 46 43
100 98 76 55 50 51 50 48 49 52 51 40 34 27 21 19 19 24 28 30 29 31 32 32 25 31 34 45 48 49 44 47 34
97 79 63 52 69 70 57 50 49 51 46 37 28 22 19 21 27 30 30 32 36 36 30 25 32 40 47 48 50 47 49 38 36
100 71 87 80 76 56 58 59 50 43 39 33 23 23 25 28 31 30 33 38 36 30 29 36 38 45 51 51 51 48 58 43 39
100 82 89 69 51 66 62 47 43 36 30 24 23 24 30 32 33 36 42 43 36 35 30 36 45 47 59 46 42 45 41 42 40
98 99 89 53 68 70 55 53 44 28 22 28 26 28 35 36 37 34 36 36 36 30 33 40 48 60 62 39 40 45 47 55 57
98 88 69 63 62 62 60 54 37 21 23 26 27 33 36 42 37 32 31 29 33 34 36 48 64 67 57 40 46 58 64 71 79
79 74 66 66 75 63 55 42 23 25 25 25 29 36 40 39 38 36 33 35 35 38 45 56 66 67 50 41 52 64 62 70 86
71 83 83 86 76 56 33 25 29 28 30 32 34 38 41 41 41 38 37 38 39 44 52 63 71 65 51 48 56 69 76 87 97
89 91 91 76 52 33 30 35 32 32 33 34 35 37 38 39 40 42 40 38 43 47 50 62 71 78 57 58 61 72 80 89 100
93 94 71 63 40 33 33 35 32 33 34 35 37 39 42 47 44 37 40 41 43 50 54 70 78 79 73 77 78 81 86 95 100
80 81 72 64 38 42 37 34 34 37 40 44 46 49 47 44 44 46 41 46 49 47 46 64 75 65 64 73 83 93 95 97 100
62 71 76 60 37 42 37 35 37 47 48 46 48 47 46 41 41 40 39 39 38 44 51 67 78 73 67 75 89 99 99 100 100
74 82 80 39 37 42 38 36 48 58 54 48 60 52 50 44 41 36 35 35 38 42 50 68 77 87 77 70 76 88 100 100 100
82 65 46 33 36 42 42 43 55 58 54 57 56 49 47 43 42 39 39 42 53 57 64 65 64 68 65 66 73 79 93 100 100
65 56 46 37 39 43 48 49 52 54 54 43 38 39 48 60 62 69 70 70 69 74 74 77 79 85 82 86 90 92 93 100 100
57 45 42 44 53 57 56 51 47 48 52 50 44 43 51 61 84 87 92 93 99 100 96 96 94 87 86 90 94 98 100 100 100
45 54 61 62 60 60 68 70 61 57 53 65 75 71 70 69 69 82 85 86 96 100 100 100 100 100 95 97 99 100 100 90 99
59 60 60 66 68 65 63 64 72 82 86 84 82 85 85 85 78 69 73 64 61 64 75 75 66 70 72 72 85 94 89 95 97

GFSFLT1_250_rhum_006.txt.gz
RH
28 52 84 61 71 92 100 100 100 91 69 60 54 52 46 43 40 46 47 48 38 31 26 19 20 26 29 30 31 33 25 27 30
34 82 98 66 100 100 100 100 99 90 62 53 61 57 53 61 50 51 45 40 32 23 19 20 27 30 31 33 36 34 24 28 34
46 83 52 86 100 100 100 100 98 63 66 73 65 52 57 58 50 47 44 37 27 19 22 29 31 32 36 38 39 25 26 30 38
38 89 100 100 100 100 100 63 66 72 76 40 58 53 58 53 50 38 35 32 26 24 30 31 32 37 40 43 40 28 31 32 36
39 63 100 100 100 99 62 100 100 100 60 46 54 54 56 50 55 43 28 29 27 29 33 35 40 40 39 40 36 34 35 32 38
42 90 100 100 100 100 100 100 97 70 83 58 58 50 54 59 50 38 21 29 31 30 37 41 41 45 44 37 35 35 31 36 39
74 100 100 100 100 98 100 99 100 83 58 53 63 57 61 45 36 29 24 28 28 29 34 39 43 44 43 40 40 40 37 37 39
77 96 100 100 100 100 100 100 86 61 51 60 64 62 52 33 31 30 27 27 28 28 31 38 41 43 42 41 39 39 35 34 36
100 93 100 100 100 100 100 86 66 65 62 74 64 58 48 32 33 36 30 31 33 34 35 36 37 37 38 39 39 35 32 31 33
90 99 100 100 100 88 100 81 74 70 67 75 61 60 56 34 36 35 32 32 32 33 34 36 38 40 40 37 34 32 32 36 40
100 97 100 100 96 96 89 79 87 75 64 65 57 58 60 35 34 35 33 32 32 35 40 42 40 39 38 37 39 40 41 43 43
83 95 96 100 95 88 96 91 75 70 57 82 67 64 51 33 31 34 35 35 35 36 44 44 45 47 46 46 45 42 41 41 39
92 90 94 97 92 86 77 65 56 57 78 79 79 70 47 35 28 30 33 36 37 36 39 41 47 54 56 52 50 45 41 39 39
73 75 73 66 62 52 50 58 72 84 78 75 64 59 54 38 33 30 34 37 40 44 50 53 49 43 41 41 40 41 42 38 37
51 51 44 45 57 67 77 87 76 70 62 60 47 41 39 42 42 45 42 40 39 38 37 36 37 39 39 38 36 39 44 55 60
44 51 56 68 95 93 74 63 58 43 38 44 48 49 51 55 50 54 49 48 51 45 39 37 35 35 41 52 59 61 64 68 74
84 92 97 93 81 76 66 45 49 49 45 42 44 55 84 72 60 62 62 58 58 52 54 55 60 57 57 57 59 64 68 67 67
86 85 77 74 70 56 46 54 54 58 67 59 41 38 41 44 59 70 63 58 58 65 69 72 75 77 69 64 66 60 53 54 56
64 64 69 68 56 55 65 63 59 56 48 52 60 57 45 38 40 45 51 63 73 82 85 89 80 71 63 56 54 56 58 48 43
46 53 58 58 65 67 60 57 55 56 64 65 67 70 73 66 45 40 39 50 51 54 48 40 39 39 37 36 36 34 35 39 38

GFSFLT1_250_rhum_009.txt.gz
RH
23 17 12 15 30 70 100 84 74 64 78 94 79 81 72 59 57 58 59 56 57 45 44 46 38 32 26 21 21 28 30 30 32
21 13 13 19 35 86 98 60 98 100 100 100 100 78 60 71 72 58 62 60 54 50 47 42 34 24 21 21 27 30 30 31 37
17 12 15 23 42 100 83 96 100 100 100 100 91 65 69 67 50 58 62 58 52 43 39 38 32 21 20 27 32 33 35 40 44
14 13 18 26 75 67 78 92 100 100 91 75 55 68 92 58 44 52 58 63 59 51 36 31 30 24 31 36 38 40 42 40 38
12 15 22 30 57 100 100 100 100 88 76 78 100 100 79 55 48 62 71 68 55 48 38 28 31 31 38 42 41 46 45 47 42
13 17 25 33 42 98 100 100 100 100 100 100 100 86 75 55 49 56 63 59 39 36 32 23 31 34 37 43 44 48 50 47 42
13 19 24 30 43 81 100 100 100 100 98 73 100 96 64 44 58 70 61 49 33 35 33 33 36 35 34 40 44 44 43 41 41
14 20 25 34 63 100 100 100 100 100 100 100 100 82 58 44 61 74 58 54 35 36 38 34 34 34 31 31 34 38 39 38 39
15 22 29 52 72 100 100 100 100 100 100 100 88 60 58 58 64 64 61 58 44 35 38 34 33 33 33 33 34 36 37 38 37
16 21 32 69 76 93 100 100 100 100 100 100 61 75 54 84 64 68 72 64 54 34 35 37 34 33 34 34 35 37 40 40 39
18 27 45 77 90 91 92 99 100 100 100 79 69 76 84 68 56 78 79 70 59 38 29 33 35 34 32 34 35 41 45 46 48
20 28 51 78 100 100 100 90 83 80 76 71 81 76 66 54 65 80 76 69 65 51 32 24 27 29 30 32 33 36 40 44 49
20 29 61 70 95 85 92 95 97 100 92 87 69 60 70 88 88 72 59 59 46 42 43 38 33 30 30 34 38 44 46 47 47
21 26 36 55 57 66 63 59 63 60 58 56 65 85 94 79 70 56 51 48 53 58 61 64 66 66 55 42 44 47 50 48 47
24 26 29 34 45 49 48 46 51 62 73 92 97 80 68 49 51 58 55 60 62 62 67 60 63 68 72 63 55 41 42 49 55
38 36 35 39 44 48 62 76 89 96 83 78 72 57 49 61 56 58 65 64 66 69 65 61 59 58 59 51 59 58 50 43 43
58 63 66 70 75 84 96 97 94 88 74 61 49 50 71 64 61 62 61 62 64 67 60 53 47 42 38 40 41 41 41 40 41
65 72 77 81 77 68 62 64 62 68 66 56 54 51 54 58 72 90 96 86 71 69 79 77 80 78 70 62 59 55 47 42 38
34 37 41 41 42 45 46 49 57 63 72 76 71 62 55 51 52 58 62 68 71 71 67 66 68 65 62 50 43 40 38 35 35
42 42 42 42 45 49 56 64 64 59 58 61 65 64 62 64 59 51 47 50 54 60 60 54 48 45 42 41 38 38 38 41 40

GFSFLT1_250_rhum_012.txt.gz
RH
17 18 20 20 22 20 14 13 21 34 51 100 100 73 66 80 100 88 67 59 47 53 53 50 55 51 50 49 44 32 26 24 23
17 19 19 22 21 17 13 15 25 82 100 68 56 83 95 100 100 81 66 69 61 41 50 56 52 48 43 43 36 25 24 24 33
18 21 23 26 20 13 12 15 24 96 76 56 98 100 100 100 81 60 72 84 55 47 48 55 59 60 48 35 31 24 26 33 42
19 28 32 26 15 12 12 16 29 87 75 99 100 100 100 100 79 100 100 76 51 49 68 63 61 49 48 38 31 28 31 39 44
31 43 32 17 12 12 15 21 48 86 100 100 100 99 100 97 100 100 97 72 49 46 67 60 51 39 39 36 30 32 34 44 50
50 38 21 14 13 17 21 25 58 91 92 88 100 100 100 100 100 94 66 76 56 44 70 63 53 35 33 34 27 34 38 41 47
44 26 19 13 13 19 24 29 54 100 100 100 100 100 100 100 95 98 96 75 44 42 67 65 63 47 35 37 35 33 36 35 36
30 24 18 10 13 20 24 28 39 80 100 100 100 100 100 100 100 98 86 61 42 54 66 63 72 64 37 39 40 38 38 37 34
24 22 13 10 15 20 24 29 42 78 100 100 100 100 100 100 100 100 85 53 55 58 64 59 79 72 61 39 40 40 37 35 34
25 20 12 10 15 21 26 29 41 96 100 100 100 100 100 100 95 75 84 61 56 65 57 56 78 76 65 54 44 38 38 37 36
32 21 14 12 15 22 29 31 43 72 96 100 100 100 100 99 82 75 75 66 65 60 58 66 71 70 64 59 49 38 34 35 36
32 23 18 16 17 21 31 46 71 75 73 69 67 79 84 76 68 60 63 76 58 69 97 80 67 51 45 42 44 45 38 34 35
34 25 22 21 17 21 29 42 60 89 100 98 92 77 70 70 82 74 66 53 77 99 87 67 56 56 60 52 47 48 57 51 47
34 33 32 30 23 20 24 32 50 55 58 64 55 59 60 56 55 62 76 98 98 85 60 63 67 73 66 61 60 46 47 57 63
28 33 39 40 38 32 28 28 30 33 35 42 48 52 56 61 78 95 100 98 85 55 53 58 60 66 70 77 80 68 61 54 59
30 32 35 40 52 56 56 53 53 54 57 62 71 79 95 99 100 100 90 89 66 71 79 77 73 64 61 60 61 67 64 56 50
36 37 35 33 36 41 50 60 74 79 80 89 88 93 96 76 70 68 64 62 73 73 67 60 59 61 60 57 53 49 47 45 45
48 47 47 44 42 39 38 39 40 43 42 42 43 46 48 50 62 70 71 71 75 80 76 69 66 67 64 59 51 49 52 53 53
63 66 64 68 74 74 70 69 68 75 76 74 76 75 70 67 67 79 84 92 93 76 71 89 90 83 70 63 64 58 52 47 44
23 25 24 26 24 26 28 30 29 29 31 41 64 85 83 74 64 75 78 72 63 60 75 76 76 68 60 54 49 47 42 40 37

GFSFLT1_250_rhum_015.txt.gz
RH
20 19 25 26 20 22 16 16 17 20 20 16 14 24 45 81 100 100 76 63 100 99 72 61 51 49 40 46 54 53 50 51 48
22 26 26 27 19 16 17 20 24 24 16 14 17 33 63 100 100 83 77 100 100 87 64 54 67 46 42 48 52 49 50 41 39
26 24 23 19 16 18 22 29 28 18 14 15 24 57 88 93 69 98 100 100 100 95 92 92 72 43 44 59 56 49 44 44 36
22 20 16 17 22 30 34 32 20 14 14 17 27 91 100 87 100 98 100 100 100 78 79 97 75 52 47 59 59 49 42 46 39
19 15 16 20 36 40 41 23 15 12 15 18 27 92 100 100 99 100 100 100 100 92 99 95 70 64 43 63 62 53 36 34 37
16 18 25 46 50 49 27 18 13 14 17 21 34 96 100 100 76 97 100 100 100 100 100 74 87 67 34 51 62 61 56 36 37
19 24 49 66 53 32 21 16 12 17 20 22 35 97 100 100 80 100 100 98 95 100 99 96 79 60 38 47 58 64 68 48 37
27 50 66 59 34 27 20 13 13 19 25 27 32 95 100 92 100 100 100 100 100 100 100 100 80 67 52 47 54 54 72 73 62
48 74 59 40 35 30 18 11 13 20 26 29 32 66 97 100 100 100 100 100 100 100 97 96 70 55 68 48 64 57 64 72 72
84 66 51 34 29 28 19 12 12 18 25 28 34 44 59 99 100 100 100 100 100 97 74 80 78 73 68 60 59 65 83 87 78
68 46 37 30 32 29 21 17 13 17 23 30 35 45 71 100 100 100 100 100 93 82 80 70 65 63 63 60 58 88 85 77 66
59 33 28 28 33 29 24 22 19 17 19 24 28 35 42 79 94 100 100 95 91 76 71 56 64 74 61 53 70 82 86 66 52
30 26 26 28 31 32 32 32 29 21 21 22 24 27 38 50 62 70 58 50 60 60 52 68 60 54 61 83 92 84 70 59 68
37 26 26 27 28 31 32 34 39 38 31 26 26 27 32 39 40 40 45 45 41 44 50 55 64 83 100 99 93 87 60 62 69
56 40 33 32 33 35 34 31 33 40 48 52 54 51 49 48 48 49 52 58 66 74 80 89 92 93 95 93 99 79 68 64 60
74 63 53 46 40 39 40 40 39 35 36 40 46 52 57 64 64 71 77 80 78 74 73 74 72 71 66 62 61 65 67 69 73
64 65 67 59 54 55 54 53 53 52 50 48 50 53 55 53 54 55 56 60 64 66 67 67 67 68 74 77 77 76 72 69 72
41 35 32 28 22 26 28 28 30 34 34 34 40 53 64 69 83 88 85 76 78 80 84 87 86 86 77 69 66 66 63 61 54
17 16 16 16 15 15 15 15 16 17 17 17 16 17 18 20 24 36 49 63 84 91 100 99 95 88 75 72 67 71 80 75 68
20 20 19 19 18 17 16 15 14 14 15 15 15 14 14 13 11 14 19 24 34 55 69 79 76 72 74 71 65 58 57 56 53

GFSFLT1_250_rhum_018.txt.gz
RH
19 19 16 22 24 25 24 20 20 21 19 16 18 24 27 26 19 17 22 44 80 100 87 67 66 98 94 53 45 52 35 34 39
18 17 17 16 20 20 21 19 17 15 18 20 24 32 30 21 16 19 30 68 93 100 85 83 99 100 83 77 76 64 43 38 53
18 18 19 19 21 23 19 15 16 21 28 37 40 32 24 15 15 20 38 83 100 100 98 100 100 100 98 76 90 79 50 50 47
20 22 21 21 24 19 15 17 24 35 41 47 39 23 15 14 17 25 57 100 100 88 98 92 100 100 100 93 88 78 55 49 36
24 28 24 23 18 17 19 25 51 57 54 45 24 16 14 15 18 39 96 100 95 100 87 100 100 100 100 100 99 88 70 53 38
30 24 18 17 17 20 28 53 56 58 42 27 19 14 15 18 22 42 99 100 100 100 100 100 100 100 100 92 100 94 79 69 53
34 20 16 17 22 32 58 70 66 41 31 23 17 12 17 21 23 29 92 100 99 99 100 100 100 100 100 100 100 98 95 70 53
23 18 17 23 33 60 74 64 41 31 28 19 12 12 17 22 25 30 75 100 100 81 79 91 100 100 100 100 100 100 82 78 51
18 20 26 34 59 70 56 45 34 29 26 20 13 11 15 22 25 27 61 89 95 98 100 100 100 100 100 100 100 100 91 82 73
21 33 42 67 68 55 40 33 29 28 27 21 18 14 13 19 25 28 33 70 87 98 100 100 100 100 100 100 100 97 85 74 72
29 58 85 75 59 37 25 24 26 32 29 26 26 21 16 16 20 25 27 33 55 82 85 90 97 100 100 95 97 91 86 83 82
48 70 84 62 34 28 24 25 28 30 30 31 34 34 25 20 22 20 19 24 32 43 82 94 89 74 67 70 71 70 73 76 91
76 86 77 70 54 39 31 28 29 32 29 28 30 34 40 41 32 26 25 24 24 23 34 58 68 72 70 57 53 54 47 54 55
100 96 92 81 74 64 51 44 39 38 37 36 34 31 32 38 44 50 49 48 43 38 35 35 36 39 42 45 46 48 53 59 65
95 100 88 67 65 63 58 54 50 49 51 49 46 44 44 42 37 36 38 42 47 55 61 64 65 67 69 70 71 71 72 73 79
81 66 59 55 54 48 47 46 41 32 28 33 40 40 35 44 48 54 53 48 48 47 47 49 50 51 51 51 53 59 62 62 64
35 37 35 30 23 18 17 17 16 15 16 16 16 16 16 16 16 18 20 20 22 25 29 36 41 43 46 51 56 56 57 62 70
20 20 21 20 20 20 19 20 22 21 19 19 17 15 16 17 18 18 18 17 18 18 18 20 20 20 21 21 22 23 24 28 32
22 23 24 22 21 19 18 18 18 18 16 15 15 15 15 16 20 26 26 25 24 24 29 32 31 29 28 29 30 32 33 35 42
25 25 24 22 20 18 16 16 15 15 14 14 14 14 13 12 10 12 18 22 25 26 26 26 26 28 30 31 36 42 49 59 68

GFSFLT1_250_rhum_021.txt.gz
RH
52 38 33 28 23 18 16 15 15 17 16 18 21 17 16 15 16 20 24 28 30 28 23 20 30 65 100 89 72 75 100 89 68
56 51 35 24 19 18 17 19 20 19 20 18 16 14 15 15 20 25 33 38 32 24 18 23 65 98 100 100 95 80 96 100 83
70 42 28 21 18 19 24 22 21 15 16 14 15 16 18 28 35 42 42 32 22 16 23 31 65 100 100 100 100 87 95 100 92
47 35 29 20 20 25 26 24 16 14 15 16 22 34 32 39 47 42 32 19 15 16 25 50 76 100 100 100 96 78 100 100 100
43 37 32 22 22 26 29 21 15 16 19 22 41 50 53 50 38 26 19 15 15 18 23 59 89 97 100 100 75 96 100 100 100
40 40 34 25 28 31 25 17 17 21 34 46 58 62 47 32 26 20 16 13 15 18 29 76 100 100 100 100 98 99 100 100 100
40 40 36 28 38 40 24 19 23 33 54 66 54 38 30 26 22 15 12 12 17 20 29 86 100 100 100 100 100 96 100 100 100
39 39 43 42 46 36 21 25 51 64 56 48 39 35 28 27 22 16 14 13 18 23 29 52 90 99 100 95 92 93 100 100 100
49 49 65 57 46 23 28 52 63 55 38 30 26 29 31 28 23 22 18 13 18 22 27 34 51 96 100 97 98 94 100 100 100
49 66 69 49 24 27 49 62 49 36 28 24 26 29 31 31 30 30 26 18 17 20 23 26 33 72 90 98 99 98 100 100 100
75 72 54 27 26 47 58 66 53 43 31 28 26 27 27 28 31 34 35 32 23 20 22 23 26 28 50 71 91 100 100 100 100
73 58 28 24 45 70 75 67 66 61 52 39 35 38 39 37 34 31 29 34 40 39 29 24 25 26 24 28 41 54 80 86 81
66 28 24 51 64 73 95 84 74 66 63 59 51 44 41 39 39 39 42 44 38 35 42 48 47 41 34 32 32 33 36 44 62
35 22 50 67 83 85 87 75 58 55 47 44 43 39 32 28 25 24 30 36 40 43 48 48 43 40 42 48 51 50 47 42 40
21 27 57 60 50 51 49 41 30 23 20 18 18 18 18 17 17 16 16 15 16 17 18 21 25 32 41 44 43 42 41 43 47
20 34 35 23 23 24 22 23 24 24 24 24 22 20 19 19 19 20 20 18 17 16 16 16 15 16 15 16 17 20 23 28 36
28 26 24 22 21 22 24 24 22 22 22 20 19 18 17 16 17 16 16 15 16 16 16 16 15 16 17 18 19 20 20 20 20
21 23 23 21 22 25 27 25 22 22 20 19 20 20 22 22 22 19 17 15 15 16 16 16 16 15 14 16 16 16 16 16 16
23 24 25 26 28 28 25 24 24 21 20 20 19 19 17 14 16 22 23 22 23 23 23 23 23 22 21 20 19 19 19 19 19
25 26 26 26 25 25 23 23 23 23 22 20 20 20 16 13 14 13 18 22 25 24 24 26 26 28 28 28 28 27 29 28 27

GFSFLT1_250_rhum_024.txt.gz
RH
100 82 70 60 54 46 42 28 25 21 19 20 21 20 15 12 14 15 14 14 15 18 26 30 36 37 33 31 26 26 35 87 57
92 66 78 68 60 51 50 34 27 29 19 20 27 21 14 11 13 14 15 19 25 34 34 36 35 38 31 25 25 37 83 100 85
100 100 100 70 60 65 44 34 32 26 20 23 25 20 14 14 15 18 30 34 38 44 43 44 39 31 21 20 28 66 100 100 99
100 92 72 66 63 50 42 36 28 26 23 28 25 18 17 21 24 36 45 49 48 44 38 28 22 17 16 22 36 58 100 100 100
98 79 69 52 53 47 43 33 27 26 32 29 20 19 22 34 46 56 51 39 32 27 23 20 17 15 17 27 36 78 100 100 100
74 72 59 53 47 42 37 32 30 37 33 25 19 32 52 55 51 44 36 27 26 24 17 13 12 14 18 33 56 90 100 100 100
61 62 69 57 47 39 40 35 38 46 34 20 31 47 52 42 32 26 27 30 27 22 18 15 13 16 22 29 56 92 100 100 100
67 64 58 51 50 43 38 44 51 40 25 26 50 42 32 26 24 24 28 30 28 26 25 21 14 17 20 24 44 90 100 100 100
60 63 63 61 54 44 42 57 44 30 33 47 56 50 35 31 28 27 27 26 28 29 30 30 22 18 21 24 30 48 88 100 100
83 82 68 60 50 57 57 61 28 35 56 59 61 60 60 59 47 41 42 40 37 34 32 31 33 29 22 21 27 28 36 56 92
89 75 59 55 60 69 67 45 28 44 62 70 69 59 55 55 56 54 52 49 47 45 43 42 41 37 35 35 27 25 28 30 39
74 59 53 67 79 86 50 28 32 51 62 64 68 55 50 43 37 34 31 28 24 23 21 21 32 43 42 42 39 39 36 29 29
87 69 77 83 94 76 26 26 29 39 45 44 36 27 21 19 18 18 18 18 18 17 16 16 15 15 15 16 22 34 40 40 41
94 79 84 100 85 26 24 22 19 21 22 22 21 22 20 19 19 18 18 18 17 16 16 16 16 17 17 16 14 14 15 18 25
79 80 96 69 25 22 26 22 20 24 23 22 21 21 22 22 21 20 21 21 23 23 20 16 15 15 15 14 16 17 17 15 15
86 92 50 22 25 25 23 22 24 24 23 26 26 27 27 26 26 25 25 24 23 22 23 22 19 17 16 15 14 14 14 15 18
72 38 23 25 23 23 24 24 25 28 27 29 29 28 25 24 24 24 22 21 22 24 24 20 17 16 15 15 15 16 17 17 18
26 25 27 25 23 25 27 29 30 30 28 26 25 25 26 25 29 25 23 23 24 22 18 16 16 14 14 14 15 15 16 16 16
30 28 21 23 26 27 28 31 30 29 28 26 24 25 24 24 26 27 26 29 31 24 21 20 20 19 19 20 20 20 20 19 18
25 24 26 26 28 30 31 33 36 34 32 28 28 27 26 22 19 20 24 29 23 20 20 21 22 22 24 27 28 29 27 25 24

GFSFLT1_250_rhum_027.txt.gz
RH
63 96 76 84 72 59 51 44 57 50 45 52 39 31 28 21 21 24 21 16 14 14 14 15 16 18 19 22 27 30 34 37 38
55 69 100 100 74 80 94 95 81 59 47 38 34 27 25 24 25 23 17 17 18 20 25 35 36 40 40 40 41 42 42 39 29
46 72 91 100 100 100 100 90 75 46 38 40 30 26 24 30 29 20 17 21 29 35 47 52 57 50 49 50 47 42 34 27 23
45 48 85 85 100 85 86 87 60 42 49 39 33 32 28 31 26 20 33 49 54 55 49 42 34 32 31 29 25 22 20 17 22
76 99 84 76 70 69 61 59 48 54 48 42 37 37 41 38 22 28 47 50 46 37 31 30 27 27 24 20 16 15 14 15 20
100 100 100 94 79 82 58 61 54 51 50 49 44 37 47 27 25 42 40 32 26 24 25 26 28 25 21 18 16 13 13 15 17
79 90 100 100 97 78 68 60 54 57 57 52 48 41 39 28 48 50 39 28 26 27 27 29 29 28 28 26 22 15 15 17 20
79 78 76 81 82 75 69 59 64 62 58 60 58 42 32 43 62 59 56 56 50 44 41 41 37 33 32 31 28 24 18 17 19
95 86 84 88 81 79 71 76 70 53 71 80 58 42 33 53 62 56 56 56 54 55 53 50 46 46 45 44 41 38 34 26 20
86 93 96 91 91 87 77 72 56 65 84 78 59 25 42 52 51 53 50 45 40 37 34 31 29 24 23 22 23 29 40 44 41
88 91 99 100 87 84 74 57 69 96 96 75 29 21 31 40 40 33 25 20 18 17 17 16 16 17 17 17 16 16 17 18 25
100 98 99 93 88 79 63 67 94 86 85 54 21 16 17 17 18 17 17 18 19 18 18 18 18 17 18 18 17 16 16 16 18
76 84 95 88 90 76 76 89 88 85 66 22 18 16 16 19 20 20 20 23 24 24 23 22 22 22 21 21 21 20 19 18 16
80 94 99 84 88 93 100 98 95 68 28 21 18 16 19 22 22 23 24 26 26 26 26 25 24 23 22 21 21 21 22 21 19
94 100 95 99 99 100 100 100 59 29 24 20 18 20 24 26 26 29 29 27 27 25 25 24 23 23 23 24 24 23 22 19 17
100 100 100 100 100 100 100 64 33 25 21 20 20 22 24 27 29 31 29 28 28 28 27 25 23 22 21 22 23 23 19 16 14
100 100 100 100 100 92 44 29 27 24 22 25 26 25 26 28 29 32 31 28 27 27 28 27 26 22 22 22 23 20 17 15 15
100 100 100 94 56 34 30 26 22 21 25 26 27 31 37 40 44 39 33 31 32 29 27 25 24 23 22 21 19 18 16 16 18
100 92 68 46 35 30 28 23 23 26 26 30 32 33 36 40 46 50 44 41 37 35 32 30 31 28 24 24 21 18 20 20 18
69 54 37 32 28 26 26 26 28 30 35 35 35 33 35 39 41 39 40 40 37 32 29 30 29 25 26 23 21 23 23 23 26

GFSFLT1_250_rhum_030.txt.gz
RH
42 44 43 47 49 57 83 71 85 72 88 93 93 78 70 42 40 42 36 29 26 24 21 15 17 19 25 28 28 32 29 30 34
49 44 46 48 47 49 60 80 94 98 100 86 63 63 52 48 49 42 39 30 26 27 18 22 38 37 45 54 56 57 54 54 51
72 59 56 59 65 57 47 82 100 96 84 61 56 55 55 50 50 46 42 31 30 22 21 37 51 52 52 46 42 41 42 42 46
82 77 74 75 81 83 88 100 95 70 62 68 61 56 60 58 54 51 40 33 32 22 34 43 39 32 30 30 32 31 28 27 27
88 93 100 100 99 100 100 100 100 99 84 77 69 63 57 63 54 47 46 38 29 31 47 36 27 25 24 30 31 28 26 22 18
99 100 100 99 97 93 87 94 96 96 82 77 74 67 67 66 49 54 47 40 28 53 52 42 32 32 34 32 32 32 29 27 26
100 100 100 100 97 100 92 79 75 77 83 81 75 69 80 58 53 56 58 30 34 59 54 51 51 48 48 46 47 45 42 39 37
100 100 100 81 85 86 84 91 86 90 90 84 79 81 73 63 65 66 40 26 47 53 50 48 46 46 44 41 38 36 36 38 39
95 80 85 84 84 83 90 92 93 96 92 88 79 79 71 71 74 70 28 28 45 46 43 38 30 23 20 20 18 17 18 18 18
86 88 89 87 83 83 84 86 100 99 87 88 82 71 73 71 86 57 22 19 28 20 17 18 19 20 20 19 19 18 18 19 20
80 88 90 83 82 86 94 99 100 94 84 86 81 76 92 90 85 38 19 15 14 16 18 20 20 20 19 19 19 21 23 23 23
74 81 67 66 80 73 91 91 91 83 80 91 81 98 95 97 57 27 18 15 15 18 19 19 21 20 21 22 22 22 22 22 22
54 59 58 62 62 66 57 55 77 84 92 100 99 100 100 82 37 22 18 16 18 20 20 21 21 24 24 25 24 24 24 23 22
17 20 37 44 66 75 78 90 86 94 100 100 100 100 96 46 28 23 19 19 21 23 25 26 26 27 28 27 28 27 27 26 26
26 41 67 86 94 100 100 98 99 100 100 100 100 97 64 33 24 20 20 22 24 26 27 28 30 31 31 28 29 27 27 26 26
27 22 30 55 98 100 100 100 100 100 100 100 94 60 33 25 21 22 24 26 30 30 29 32 34 35 33 32 33 32 30 27 24
26 25 42 72 95 100 100 100 100 100 100 85 43 31 28 23 24 26 27 29 31 31 30 32 36 35 32 32 33 32 30 26 25
29 40 83 95 94 100 100 100 98 83 58 34 32 27 22 24 28 29 30 30 31 30 34 36 36 33 32 31 30 28 25 23 24
35 48 89 100 100 100 97 83 64 37 35 31 26 26 28 32 40 42 41 40 36 37 36 35 38 38 34 27 24 23 22 24 22
37 45 71 99 99 91 65 52 36 34 29 30 32 32 34 36 39 46 46 47 48 47 48 47 43 35 30 26 25 25 26 25 23

GFSFLT1_250_rhum_033.txt.gz
RH
54 53 58 58 49 45 48 46 47 46 47 53 69 94 95 98 81 70 52 53 48 48 41 34 32 29 26 20 34 52 47 47 59
70 66 69 69 69 61 56 55 53 61 64 53 68 88 99 75 70 71 58 51 50 51 39 34 37 30 24 29 40 44 43 44 45
88 84 80 74 71 66 61 61 67 73 90 91 99 100 98 90 91 72 63 63 60 51 40 35 37 25 26 40 37 31 28 30 33
95 90 88 90 89 80 80 78 90 89 97 100 99 85 94 95 83 71 72 66 62 55 44 37 33 25 39 44 31 28 28 32 33
100 100 96 95 98 97 95 91 100 100 92 96 88 82 70 73 72 73 74 74 65 54 47 44 30 29 50 56 43 33 31 31 34
100 100 100 100 98 80 91 100 100 100 100 95 89 85 77 75 76 80 78 72 67 52 55 48 26 36 55 53 53 50 48 44 40
100 100 100 100 96 100 100 100 100 98 95 76 81 76 93 86 78 76 70 71 64 54 59 47 23 33 48 46 49 47 44 36 32
100 99 100 100 100 100 100 100 100 96 81 79 84 80 87 89 85 84 81 72 65 65 65 45 20 28 45 32 26 21 20 19 18
100 100 100 100 100 95 93 94 83 76 73 80 79 80 89 100 97 88 84 80 74 80 75 41 20 24 17 15 17 17 18 18 18
73 72 83 84 97 92 88 89 83 77 78 73 78 73 86 100 88 84 81 87 85 85 79 32 18 16 15 17 18 20 19 19 21
82 88 97 97 87 78 78 74 69 69 78 63 66 70 99 76 84 91 95 99 100 94 71 27 19 17 17 18 20 19 21 21 22
100 100 100 96 92 84 67 54 68 69 72 68 70 81 72 62 84 99 100 100 100 86 59 25 20 19 18 20 22 22 23 24 24
23 24 32 54 64 53 49 32 29 29 30 45 81 91 93 99 100 99 100 100 100 78 39 26 22 21 21 22 24 25 24 27 27
27 26 24 21 18 18 16 24 50 66 82 92 99 100 100 100 100 100 100 100 89 62 34 26 24 22 25 26 26 26 28 29 32
24 25 26 23 21 19 22 33 27 46 94 100 100 100 100 100 100 100 100 87 63 39 28 24 26 28 26 26 28 29 28 29 34
20 23 26 22 24 23 24 26 23 60 86 98 100 100 100 100 100 94 80 46 38 32 27 26 26 27 30 31 32 33 33 36 38
34 29 28 21 21 26 27 24 43 76 85 87 80 89 100 89 78 50 37 38 32 27 27 28 31 33 35 34 33 32 33 33 33
61 42 29 22 22 23 26 29 57 95 97 92 93 90 73 46 36 35 32 29 30 32 32 34 35 35 35 36 36 37 38 36 35
73 67 42 27 22 24 27 30 56 86 99 96 70 60 41 36 32 32 34 34 33 34 35 35 34 34 34 38 41 41 40 39 38
76 73 51 36 32 29 29 28 30 51 73 83 55 53 41 36 36 36 37 36 40 44 48 48 49 49 50 48 47 46 44 37 34

GFSFLT1_250_rhum_036.txt.gz
RH
51 42 49 59 63 60 55 50 52 61 55 43 44 49 50 64 71 74 94 100 90 74 71 61 59 48 38 37 35 32 25 22 35
67 69 68 71 74 77 75 65 65 66 63 61 56 50 62 77 91 94 82 81 63 68 62 65 57 48 42 40 39 31 22 27 41
86 91 93 85 91 95 93 86 80 80 74 71 70 69 82 98 99 93 75 77 72 64 57 62 61 50 46 43 40 29 23 38 50
93 95 95 93 91 89 98 98 92 81 78 82 72 81 87 100 100 91 89 84 75 73 66 63 57 51 50 45 40 26 26 46 51
97 100 100 100 99 88 86 91 100 100 90 85 88 97 100 100 100 96 84 69 69 83 79 69 60 58 58 51 42 26 30 41 47
100 100 100 100 100 100 100 100 100 100 98 100 100 100 100 100 99 93 80 84 84 80 82 68 71 68 68 64 51 26 30 40 44
96 100 100 100 100 100 97 100 100 100 100 100 100 100 100 99 77 82 75 77 74 87 90 94 80 72 83 70 64 28 30 33 26
36 39 84 100 100 100 100 100 100 100 100 100 100 97 84 86 84 70 72 72 78 87 87 89 82 75 95 82 66 29 23 19 15
21 24 29 61 96 97 98 100 100 100 100 100 98 96 86 77 75 64 76 68 62 88 95 78 87 86 100 95 74 31 18 16 15
17 17 18 24 33 40 47 46 60 92 96 82 85 89 75 67 62 54 61 68 78 94 82 72 83 98 100 100 76 34 20 19 18
18 18 19 20 45 63 64 66 76 87 89 85 92 82 73 56 52 62 64 74 93 82 84 100 100 100 100 100 73 33 22 22 21
14 16 20 21 23 58 96 100 100 98 91 90 74 65 53 47 30 33 54 94 90 90 100 100 100 100 100 99 58 34 24 24 25
13 14 17 21 24 24 24 29 27 25 21 22 19 20 29 42 71 83 97 100 100 100 100 100 100 100 98 83 54 34 28 26 28
13 13 14 18 22 22 24 24 22 20 20 19 20 22 22 29 64 96 100 100 100 100 95 100 100 94 83 61 42 32 27 28 30
15 15 15 17 17 19 22 24 22 21 22 22 21 22 23 58 76 87 92 97 86 89 100 97 80 59 47 43 38 29 27 29 30
24 20 22 20 18 19 20 20 20 20 22 21 24 22 32 66 82 80 81 84 88 86 76 50 42 43 40 36 32 29 29 31 34
27 32 27 21 23 22 20 19 18 19 19 21 23 22 36 64 84 92 86 81 65 48 40 38 36 33 30 30 34 36 37 37 36
32 52 50 40 38 31 22 20 24 23 21 21 21 24 28 51 70 78 66 57 52 40 37 34 32 32 34 34 36 38 39 40 41
26 27 35 36 32 42 37 46 52 48 26 22 24 26 28 30 43 56 56 52 54 45 40 37 36 35 35 37 40 43 46 50 53
27 26 29 36 38 41 55 46 56 56 36 28 27 27 26 28 32 45 55 61 59 59 53 47 46 47 48 49 51 52 52 53 57

GFSFLT1_250_rhum_039.txt.gz
RH
34 44 65 61 55 52 54 57 59 68 72 69 72 73 60 53 58 61 61 65 76 88 79 68 64 68 62 61 46 43 42 37 36
35 43 45 58 65 64 70 74 76 74 76 79 84 85 83 75 74 60 59 58 60 95 85 68 66 70 68 61 55 54 48 43 41
46 40 52 58 65 73 88 88 93 92 84 79 81 83 79 78 64 62 67 54 87 100 99 87 77 63 59 57 65 56 52 49 45
56 61 72 81 83 88 82 87 89 94 89 92 76 76 74 80 77 87 85 82 100 100 97 88 81 76 58 65 66 63 62 63 50
48 64 100 100 100 100 100 99 96 89 86 87 94 99 96 92 86 100 99 100 100 100 92 71 74 66 69 65 69 66 72 67 63
44 54 56 60 82 98 100 100 100 100 100 100 100 100 99 74 90 92 80 100 100 98 97 74 70 65 65 68 67 59 66 76 82
46 48 50 52 51 47 76 93 98 100 100 98 92 94 97 85 99 96 99 92 94 89 86 74 67 68 65 76 84 83 65 72 86
37 45 45 46 48 44 41 48 59 60 75 100 100 100 100 100 98 98 93 94 93 91 80 69 60 58 65 74 94 77 61 80 100
24 31 30 31 28 26 27 26 22 23 25 53 77 97 87 87 90 93 82 86 86 84 74 58 57 61 73 82 83 69 86 100 100
17 17 18 18 18 19 16 16 16 16 16 19 27 48 46 41 58 67 80 89 84 69 58 51 53 56 66 80 96 72 100 100 100
14 13 13 14 15 16 17 16 15 15 18 18 22 53 70 78 84 85 80 67 58 44 40 30 35 53 66 82 91 90 100 100 100
18 16 15 15 15 15 15 14 15 17 18 21 22 30 50 62 40 22 22 20 22 39 44 71 77 92 92 94 100 100 100 100 100
18 17 17 16 15 16 16 15 15 16 19 22 21 22 21 21 20 21 21 21 23 22 34 86 97 100 100 100 100 100 100 100 92
19 18 18 19 18 15 17 18 18 17 17 18 21 23 23 21 22 24 25 27 25 45 74 84 94 88 95 100 100 100 94 81 68
23 21 21 21 21 23 21 19 19 19 18 19 18 18 19 20 22 24 25 25 35 67 82 79 83 88 91 91 86 73 55 48 44
28 26 23 20 18 21 24 26 26 26 27 23 19 17 17 18 22 21 26 25 30 37 63 86 86 74 64 54 46 41 39 40 40
43 38 42 37 23 21 23 25 24 33 33 24 20 20 20 19 23 24 25 27 33 37 33 38 47 48 54 47 41 37 36 34 34
46 41 34 35 36 29 27 31 34 41 39 39 36 31 27 26 33 31 25 25 28 36 35 38 47 46 47 54 51 45 41 39 38
100 85 51 43 46 52 34 28 28 28 29 29 32 40 43 42 60 53 33 30 36 39 37 41 43 48 52 58 59 61 62 57 55
78 71 40 43 35 32 34 31 28 27 27 27 30 32 35 56 65 82 68 46 46 58 53 62 54 43 44 47 46 46 53 57 60

GFSFLT1_250_rhum_042.txt.gz
RH
18 19 21 26 30 33 32 32 36 40 41 44 48 54 62 61 62 66 64 59 54 53 56 59 60 51 84 96 86 76 62 61 54
24 22 22 21 22 26 31 37 43 44 52 63 67 70 76 77 78 78 72 69 68 62 62 61 71 70 100 100 87 81 79 70 59
27 27 28 26 29 32 33 50 58 65 66 75 82 91 93 92 90 87 81 79 80 77 90 82 88 89 100 100 95 85 62 56 58
27 28 31 30 29 31 38 52 68 81 83 92 98 99 97 98 91 87 83 86 84 99 77 76 88 58 81 96 100 82 82 66 56
25 24 22 23 24 26 36 41 42 64 88 86 100 100 100 100 100 99 100 100 99 100 96 93 82 79 91 93 92 89 72 65 57
22 21 19 17 22 26 35 37 45 46 51 60 63 66 87 90 87 92 97 100 100 98 94 95 98 83 96 91 85 91 77 68 57
19 20 19 18 20 22 32 38 43 48 50 49 49 48 50 55 62 76 63 91 100 100 100 100 100 100 89 89 74 72 69 63 66
22 21 21 22 22 24 25 31 33 38 42 38 33 36 34 35 34 39 41 41 46 78 74 64 71 61 75 64 92 72 86 79 77
21 19 18 16 16 18 19 21 23 23 27 26 24 21 21 20 16 16 16 20 30 41 42 41 54 67 66 71 62 53 53 49 58
20 18 17 14 13 14 15 15 15 16 16 17 17 17 16 15 14 14 15 16 28 61 70 72 79 46 29 32 29 34 34 59 85
21 20 17 16 20 18 23 21 16 14 14 14 15 16 17 16 15 15 15 18 20 30 39 27 19 19 18 25 30 68 80 88 90
17 16 15 15 15 18 18 18 19 18 17 16 16 17 18 19 18 17 18 18 20 21 21 22 22 20 20 19 28 56 87 93 100
19 18 19 18 18 20 20 19 19 20 21 19 16 16 19 20 19 18 19 18 19 22 23 24 24 25 24 36 54 86 87 92 95
29 30 27 22 21 22 21 20 19 18 21 23 23 19 18 19 20 20 19 19 20 23 24 24 24 26 27 48 76 99 92 86 92
45 40 33 27 26 25 24 23 21 20 19 21 24 24 23 21 19 19 21 22 24 25 23 24 25 27 28 43 58 87 94 81 84
52 77 64 56 59 53 46 39 31 29 23 22 25 26 25 25 26 26 25 30 31 28 26 25 26 28 29 36 44 48 63 65 58
88 99 96 86 62 56 48 41 35 30 35 37 28 25 27 33 33 36 38 36 29 28 28 30 33 36 35 34 43 43 43 47 53
100 100 92 73 84 67 49 55 46 37 33 29 32 34 30 29 32 37 42 43 49 55 52 57 64 70 57 41 39 44 48 50 50
100 100 93 97 97 78 70 62 49 31 30 31 30 30 32 31 30 30 35 37 41 51 66 78 83 84 75 58 38 43 51 64 76
100 100 100 100 100 83 55 46 48 46 39 34 38 35 32 29 30 38 38 48 49 54 56 56 66 78 87 75 67 48 46 50 68

GFSFLT1_250_rhum_045.txt.gz
RH
15 16 16 17 19 24 26 23 24 26 26 29 32 32 35 44 44 44 57 62 66 64 72 69 76 67 66 72 70 78 67 76 88
17 21 23 28 30 34 23 23 24 25 30 30 31 31 38 50 63 70 68 74 72 67 74 72 76 81 70 86 77 71 58 63 77
19 19 25 29 27 26 26 26 24 23 24 26 25 28 37 45 52 66 81 82 79 84 69 89 94 90 100 84 69 89 92 83 60
22 24 21 21 21 20 23 22 23 21 22 23 25 27 32 42 50 65 66 90 85 76 95 92 94 85 87 100 99 96 92 69 90
21 20 22 20 22 22 23 19 18 21 22 26 24 28 34 36 40 42 50 56 65 57 59 64 74 60 98 100 76 76 95 90 100
19 19 21 24 20 21 21 23 22 20 21 20 21 25 29 30 39 46 47 47 48 48 52 63 60 61 80 67 100 100 84 94 87
26 25 24 23 23 22 22 24 24 22 22 22 21 20 22 26 27 30 31 37 34 32 34 32 38 28 31 32 35 58 57 47 51
26 24 23 22 23 25 27 26 23 23 21 18 16 16 18 19 20 22 23 24 22 20 19 18 16 15 17 22 34 44 54 67 70
26 24 25 31 29 27 26 23 21 20 17 15 14 14 15 15 15 16 16 17 17 17 17 14 13 16 17 25 48 59 53 21 18
36 33 28 26 24 22 20 20 21 23 21 16 16 17 20 20 16 14 13 13 14 14 16 15 15 18 19 21 21 20 20 20 19
32 31 29 24 24 23 21 19 17 16 15 16 17 18 20 18 17 17 16 15 15 15 16 17 18 20 20 20 24 23 22 20 21
35 35 33 31 30 30 28 20 18 18 17 17 18 19 18 18 17 17 18 17 17 17 19 20 21 22 23 25 26 26 23 22 23
49 44 44 47 34 29 28 28 25 25 22 20 21 20 21 20 18 18 18 19 21 20 20 21 23 25 24 26 26 24 26 24 26
70 57 61 56 48 44 45 42 38 35 29 26 25 23 23 22 21 19 18 19 21 24 26 26 25 27 28 30 31 28 26 26 27
87 77 77 72 68 68 65 61 63 54 54 51 46 40 36 34 35 33 25 21 23 26 28 30 32 36 42 43 40 34 30 28 31
97 73 74 75 87 90 91 95 97 88 75 60 54 41 41 38 33 33 40 40 31 25 30 41 49 52 54 52 43 36 35 35 38
78 86 82 100 96 88 97 100 78 71 67 59 59 53 54 38 30 27 28 29 32 36 32 31 43 48 54 61 69 72 61 56 57
93 100 100 100 100 100 100 100 90 82 77 58 58 53 42 37 34 30 30 32 32 31 32 32 35 37 39 45 58 74 84 97 99
80 100 100 100 100 100 100 100 100 89 64 57 54 58 49 44 42 36 36 37 36 36 34 35 38 42 48 50 52 55 70 88 99
72 79 89 100 100 100 100 100 100 100 87 81 71 69 58 54 48 50 52 59 60 50 43 43 41 42 49 52 59 68 71 69 70

GFSFLT1_250_rhum_048.txt.gz
RH
16 16 16 16 17 16 15 15 16 19 20 20 20 21 20 20 19 19 19 20 19 23 29 36 63 55 55 71 76 91 80 69 79
19 18 16 17 18 17 16 17 18 17 20 20 18 18 18 16 18 19 20 22 21 24 31 39 48 41 45 60 62 67 65 55 56
16 18 20 19 21 22 19 18 17 15 16 18 21 21 20 24 23 21 21 22 24 24 25 35 44 45 57 62 76 60 55 58 56
20 20 17 16 16 16 16 17 18 20 22 20 19 20 22 25 24 23 21 22 21 24 31 30 34 40 45 49 62 52 46 53 59
20 18 17 18 19 21 22 23 21 20 20 20 20 22 23 23 22 22 23 23 22 22 25 28 32 34 35 37 40 36 36 36 61
22 19 18 21 22 21 20 19 21 21 23 21 22 25 24 24 21 22 21 19 18 16 19 22 22 24 25 26 23 20 19 18 16
25 24 22 22 22 22 20 21 22 25 23 24 22 24 21 20 19 18 20 17 15 14 15 18 20 21 20 20 19 18 16 14 17
28 26 27 26 24 21 20 22 25 26 23 26 22 21 19 19 18 20 20 17 14 15 15 15 15 15 16 17 17 18 15 16 17
30 27 24 25 28 24 23 25 26 27 26 26 23 22 20 20 20 18 15 16 17 17 20 18 17 16 15 15 16 16 17 17 18
32 32 35 35 34 32 32 32 31 26 24 26 25 24 22 20 18 16 15 17 17 18 18 18 18 18 18 17 18 18 18 20 21
37 40 46 48 45 47 44 38 35 36 31 32 32 31 27 21 19 18 18 18 19 21 21 20 20 20 20 20 19 19 20 22 24
59 61 65 61 55 53 52 46 46 46 43 43 35 34 36 33 29 24 22 22 23 24 22 22 20 20 22 25 26 24 23 23 26
81 77 73 72 64 56 60 61 54 60 59 56 56 48 43 44 41 41 40 38 36 33 33 32 28 23 20 22 24 28 30 28 29
72 71 67 58 50 46 57 82 85 78 75 72 81 68 69 65 63 55 49 44 44 41 35 30 29 33 34 28 25 29 31 36 37
64 58 52 46 41 41 58 73 79 85 83 82 78 75 68 54 56 52 45 46 47 39 32 27 24 25 30 36 36 34 41 51 54
71 60 58 50 48 46 61 65 82 99 98 98 69 68 52 53 54 50 48 56 52 42 38 34 27 27 29 30 33 38 36 42 52
74 72 65 66 70 86 100 89 90 94 90 90 77 59 52 44 54 57 55 60 56 52 44 44 36 32 32 33 33 35 38 39 41
84 83 82 84 91 96 100 100 100 100 96 79 65 58 50 45 50 63 63 63 62 61 60 55 48 42 44 45 44 41 40 41 47
78 80 79 92 96 92 95 100 100 100 98 90 84 73 74 64 64 80 89 85 86 82 76 65 57 54 60 57 54 53 51 53 51
90 88 90 86 86 88 93 100 100 100 100 100 100 100 100 100 93 90 99 100 100 95 82 74 64 60 70 75 74 78 75 74 74

GFSFLT1_250_rhum_051.txt.gz
RH
22 20 19 19 19 19 18 17 16 17 17 17 17 16 16 15 16 18 18 17 18 19 21 24 20 21 21 25 29 29 34 55 61
23 23 22 19 16 16 16 18 17 16 16 17 15 14 15 18 19 21 19 20 20 23 24 23 24 21 23 24 25 33 39 34 38
18 18 18 19 19 19 19 19 17 16 17 18 21 22 19 18 19 19 19 19 20 20 19 20 21 20 22 22 20 24 28 31 37
22 21 20 17 20 24 25 21 19 17 17 17 18 17 15 15 17 20 18 18 18 20 21 20 19 18 20 18 17 17 22 24 27
24 20 20 22 23 25 25 23 22 19 18 17 17 16 17 18 18 17 17 17 19 20 20 19 18 20 18 16 14 16 18 22 22
25 23 26 27 26 23 19 17 17 17 17 18 18 18 18 20 20 20 20 21 22 22 22 21 22 20 18 15 16 16 16 17 18
33 32 28 24 23 19 18 18 19 21 23 23 22 26 27 28 28 27 27 26 24 23 21 21 19 16 15 16 20 22 19 16 14
27 24 24 25 22 21 20 23 21 20 24 26 25 29 36 33 29 31 30 28 27 25 22 20 17 16 16 17 19 19 19 19 17
21 23 22 22 22 25 26 22 25 28 35 39 42 41 41 37 35 32 33 33 29 26 22 18 17 17 17 18 19 19 19 19 19
23 23 22 21 25 24 28 34 42 50 50 50 48 44 37 34 34 41 41 34 29 31 30 27 23 22 22 22 21 20 20 19 20
33 34 38 42 46 48 50 54 54 58 55 50 38 34 41 43 50 51 52 50 43 37 37 38 40 38 35 31 27 26 24 21 19
53 58 60 67 70 71 65 64 66 60 55 42 36 40 57 71 62 52 52 61 56 58 58 52 46 43 42 38 34 31 29 32 30
70 83 84 81 73 65 56 58 56 49 45 39 39 44 63 69 76 62 56 59 56 48 54 50 50 48 45 40 34 29 25 24 29
89 99 90 81 72 62 57 51 50 45 43 47 50 48 65 71 71 62 58 52 45 43 50 54 59 53 52 50 41 38 32 28 26
81 89 81 78 76 71 64 61 70 66 57 63 51 63 68 67 59 56 57 59 48 43 46 50 52 53 57 50 51 46 44 34 31
100 96 84 80 90 76 82 77 90 78 82 74 66 62 64 69 57 62 55 52 52 49 52 53 45 53 55 57 55 57 52 46 39
95 89 92 92 90 88 85 91 87 79 83 86 81 88 100 100 82 74 64 60 55 58 60 61 58 59 58 57 62 59 57 53 45
100 94 97 100 88 86 83 81 82 87 87 99 96 100 100 94 74 64 62 64 61 67 67 72 73 62 56 64 75 70 73 62 55
99 97 100 100 100 100 100 92 87 93 100 100 100 99 100 100 100 100 99 99 88 98 89 84 80 73 67 66 78 89 88 73 65
90 99 100 100 97 95 100 100 98 100 100 100 98 89 100 100 100 100 100 100 100 100 97 100 97 91 83 81 91 95 88 79 72

GFSFLT1_250_rhum_054.txt.gz
RH
24 22 22 20 21 22 22 23 20 18 18 19 18 17 15 15 16 16 17 18 16 17 18 19 20 20 18 20 20 21 20 20 20
21 23 23 22 21 20 21 20 20 18 19 21 23 23 21 18 16 16 17 18 16 16 18 19 20 21 20 20 20 21 21 20 19
28 28 28 27 25 24 23 21 21 22 22 24 23 21 19 18 17 15 16 17 17 17 19 21 22 23 23 24 24 23 22 20 19
34 33 33 30 30 28 26 23 21 23 24 24 20 16 15 15 16 18 21 21 23 23 24 24 25 25 26 26 24 23 22 22 19
34 34 39 42 38 34 30 26 26 25 22 19 18 16 16 17 19 22 24 24 24 25 28 27 28 27 28 27 24 22 21 18 17
45 47 44 38 34 32 28 26 23 22 20 19 17 19 20 23 25 26 28 28 31 34 31 30 28 30 31 28 26 22 18 16 16
49 42 34 29 26 23 22 20 19 18 18 17 19 20 21 24 29 32 31 35 38 33 29 28 29 32 30 28 24 20 18 18 18
43 36 31 27 26 24 23 20 20 22 28 31 27 29 35 42 48 47 42 39 33 30 30 38 40 38 31 30 29 26 24 23 22
30 29 27 27 26 27 24 25 29 33 34 35 36 47 50 52 55 46 45 39 30 35 54 52 41 41 41 38 39 38 39 37 31
33 35 34 30 32 33 32 32 34 38 48 55 56 58 50 44 42 44 35 28 30 35 58 57 54 51 54 58 51 47 44 41 38
31 31 36 34 37 47 41 43 49 55 69 74 67 57 48 44 42 38 32 33 39 54 63 63 58 52 44 52 51 52 50 47 42
40 38 40 44 54 55 64 60 65 77 91 77 60 55 50 44 43 38 39 39 41 46 60 62 57 46 41 51 49 50 45 45 44
64 64 66 66 69 70 74 77 74 74 73 65 60 56 58 50 50 44 41 52 54 45 52 52 52 53 49 46 45 45 41 40 44
72 75 79 83 80 75 79 81 89 84 75 72 75 69 63 58 57 59 53 59 62 61 55 56 57 54 52 55 53 54 48 45 44
88 89 89 85 83 82 95 100 100 97 88 87 84 80 81 82 76 66 73 82 81 84 86 76 74 58 57 54 51 51 49 46 44
100 92 89 85 100 97 100 100 99 93 81 82 78 85 91 81 85 93 99 100 89 84 88 90 71 60 53 49 50 48 46 50 48
81 89 95 98 92 96 100 92 91 86 82 82 86 95 100 99 100 100 100 100 74 98 82 72 74 66 63 62 60 62 59 56 54
100 99 95 100 100 100 94 99 92 95 100 100 94 100 97 100 100 100 100 100 100 100 100 99 79 85 81 72 72 72 66 61 60
100 99 96 100 100 98 100 99 96 98 99 97 100 100 100 100 100 100 100 100 100 100 100 100 100 100 92 81 96 90 91 81 76
100 100 99 100 100 100 100 100 100 100 100 100 100 100 100 100 100 100 100 100 100 100 100 100 100 100 100 100 100 100 95 84 84

GFSFLT1_250_rhum_057.txt.gz
RH
17 18 17 18 19 20 21 22 22 22 24 24 23 22 20 22 23 23 21 17 17 16 16 15 16 19 20 21 18 19 22 24 23
24 24 25 26 28 27 28 29 29 28 29 28 26 24 24 25 23 22 19 17 15 16 19 22 22 24 21 21 21 26 26 25 26
41 42 43 40 37 36 36 37 39 41 39 36 32 28 26 25 23 19 17 16 17 17 19 21 24 28 29 28 34 31 32 30 30
58 57 51 50 46 44 43 41 41 40 36 31 28 25 21 20 19 18 17 18 16 18 23 28 30 32 34 37 32 27 27 28 28
69 64 61 57 52 48 45 42 38 33 27 24 22 20 18 18 18 22 24 26 31 33 33 34 33 38 36 32 27 29 32 32 29
48 49 51 47 44 51 52 44 37 31 28 24 24 21 21 23 24 27 26 32 39 40 44 42 41 40 29 25 40 41 38 36 32
41 52 54 52 55 52 42 33 28 26 26 24 24 22 22 24 25 27 34 44 51 45 36 37 33 27 27 32 52 46 48 46 41
55 58 61 61 52 43 35 30 27 27 27 26 26 24 27 31 34 39 50 58 45 41 37 33 28 26 35 46 56 59 57 57 54
62 58 61 52 46 39 35 32 28 27 25 26 27 30 40 43 50 58 64 52 49 36 36 33 31 31 38 44 53 57 47 46 52
58 58 52 47 42 39 36 34 33 32 33 39 50 49 56 59 58 65 59 55 52 42 41 39 37 40 45 47 46 52 46 46 45
51 48 44 42 38 37 37 38 37 43 46 56 63 66 68 67 64 62 59 58 53 55 52 49 44 52 46 56 60 53 52 47 45
45 46 47 43 44 46 45 48 56 59 63 75 83 77 79 73 69 66 72 62 58 61 53 49 51 54 49 50 59 74 74 60 50
50 54 54 54 53 58 58 60 64 71 90 93 80 90 90 83 88 75 62 63 65 68 64 65 64 63 78 85 69 74 80 63 58
60 58 57 54 58 67 60 71 80 84 93 96 84 98 97 92 88 70 67 72 74 77 73 74 80 83 93 75 69 74 70 65 61
55 58 54 52 64 87 94 88 91 95 93 90 94 100 100 96 87 85 79 86 96 96 97 95 95 93 84 75 77 76 74 67 56
55 53 51 64 85 86 87 82 85 99 100 100 94 94 100 90 89 85 90 100 100 100 100 100 95 95 99 95 84 78 66 52 56
53 58 64 56 76 80 87 93 96 100 98 91 97 100 96 99 86 93 100 100 100 100 100 100 100 100 100 98 85 69 52 56 58
55 64 71 73 85 97 94 100 100 99 97 100 98 100 100 100 100 100 100 100 100 100 100 100 100 100 100 100 100 100 98 96 80
77 82 71 72 73 78 94 93 100 100 100 100 100 99 100 100 100 100 100 100 100 100 100 100 100 100 100 100 100 100 100 100 98
62 72 92 90 91 100 100 100 100 100 100 100 100 100 100 100 100 100 100 100 100 100 100 100 100 100 100 100 100 100 95 94 87

GFSFLT1_250_rhum_060.txt.gz
RH
21 19 18 18 18 22 29 39 42 40 38 38 36 34 37 39 37 32 31 28 23 20 19 18 18 20 18 17 20 23 24 26 25
20 21 20 21 26 38 48 44 47 45 46 46 45 42 40 35 29 25 23 21 20 18 18 22 21 23 26 29 27 29 29 29 34
24 24 26 33 37 43 50 54 51 49 46 44 43 44 39 33 28 26 24 22 20 21 24 25 27 29 34 34 32 36 36 35 28
42 61 61 55 52 52 49 49 49 46 43 42 49 41 32 28 25 24 24 24 22 24 26 27 34 44 45 40 34 30 26 25 26
68 70 63 50 43 38 38 37 39 45 53 53 43 36 29 27 24 24 25 23 22 29 29 34 46 49 40 34 31 28 24 29 43
60 63 60 52 44 36 34 36 41 49 53 50 44 35 32 28 27 26 25 26 28 33 37 39 47 48 41 35 31 28 25 33 49
46 45 44 41 38 37 40 44 49 54 54 47 38 35 32 29 27 26 29 36 36 42 41 38 43 54 45 35 34 32 28 38 44
44 40 35 39 42 45 46 50 49 46 42 40 32 30 27 27 30 29 34 44 43 43 51 49 53 50 44 36 36 37 37 37 52
45 41 41 41 42 44 45 45 41 36 33 30 31 31 31 36 40 41 53 52 53 54 55 52 49 47 49 46 42 46 43 38 39
43 47 42 43 44 43 40 38 35 33 32 33 36 40 43 45 55 58 60 60 63 62 58 60 52 52 54 50 45 45 44 43 43
53 52 51 46 43 42 39 37 36 38 41 41 47 51 55 60 70 79 66 67 72 69 70 65 58 54 63 63 60 57 60 60 55
56 56 48 44 45 44 43 40 44 45 51 50 60 76 84 74 79 89 97 92 93 91 74 70 68 63 71 60 75 78 82 79 70
59 54 49 46 46 46 47 50 49 51 49 54 66 70 83 96 90 100 100 94 99 93 76 76 70 72 77 82 91 94 93 80 69
79 73 76 61 54 52 45 46 50 50 49 53 56 92 94 96 98 100 100 100 97 99 92 84 78 78 85 96 95 94 89 93 67
91 82 70 58 56 63 53 48 48 56 54 57 64 82 91 97 100 98 100 100 100 100 100 92 92 87 96 100 100 94 96 74 79
88 74 69 67 54 51 54 50 54 54 73 73 68 65 93 98 100 100 100 100 100 100 100 100 98 100 100 100 100 100 100 100 100
78 84 76 64 52 59 59 57 61 76 69 55 82 86 98 100 99 100 100 100 100 100 100 93 98 100 100 100 100 100 100 100 100
77 67 61 56 68 57 50 48 78 73 56 83 98 94 89 95 98 98 100 100 100 100 100 100 100 100 100 100 100 100 100 100 100
56 45 50 61 62 55 50 56 58 58 76 82 100 95 84 85 99 100 100 100 100 100 99 97 100 100 100 100 100 100 100 100 100
70 57 56 60 54 48 45 53 68 77 85 100 100 100 100 100 100 100 100 100 100 100 100 100 100 100 100 100 100 100 100 100 92

GFSFLT1_250_rhum_063.txt.gz
RH
36 28 24 22 21 21 21 23 35 43 45 43 42 42 38 36 33 44 42 37 31 27 24 23 24 23 24 27 28 28 27 30 32
27 26 25 24 23 23 29 45 49 44 38 35 32 33 30 35 44 45 43 38 32 28 26 24 24 23 25 33 30 35 39 38 33
28 24 25 25 25 42 54 60 56 50 43 36 32 30 32 32 39 49 48 36 32 29 26 25 27 31 30 40 38 44 46 39 31
26 25 25 29 36 36 43 47 46 44 42 37 34 33 36 35 45 46 39 34 26 24 24 25 29 35 39 45 41 50 49 35 31
28 30 33 38 37 41 44 43 35 33 30 30 31 34 36 36 36 34 28 26 24 26 30 31 36 38 40 48 48 47 43 39 35
32 33 38 42 41 41 41 37 35 29 28 30 33 37 38 31 28 29 32 34 36 33 35 35 40 45 45 47 52 47 42 40 36
34 45 50 49 47 45 42 38 36 33 33 36 36 34 34 34 34 32 38 42 41 39 41 45 49 50 55 58 61 55 41 40 41
62 64 60 52 46 43 41 39 38 36 36 37 36 35 34 32 36 37 40 40 43 51 58 68 67 64 58 60 67 54 48 41 43
54 62 61 57 53 50 45 43 44 40 38 39 39 34 29 32 34 40 40 45 54 70 66 78 87 81 76 69 58 62 55 47 49
59 64 66 65 58 52 46 45 42 42 40 36 37 33 36 41 41 42 46 49 68 78 94 83 90 85 94 82 66 65 55 54 52
74 70 70 61 55 54 49 42 42 41 42 46 42 48 45 47 48 50 47 50 61 85 91 92 99 100 100 87 84 68 62 61 55
65 72 63 62 61 55 52 52 56 71 58 49 56 49 49 51 51 47 58 71 68 67 90 96 99 100 100 96 86 82 70 60 63
84 69 68 70 72 70 67 84 94 81 71 59 55 50 53 52 49 60 82 67 74 86 90 96 93 100 100 100 92 88 82 73 73
75 83 85 85 82 94 97 96 86 80 73 66 52 52 55 52 54 63 69 59 82 90 88 96 100 100 100 100 100 94 84 81 76
85 88 99 100 100 100 99 83 80 71 72 60 52 55 54 51 53 59 56 57 80 100 93 86 93 100 100 100 99 100 96 73 88
100 100 100 100 100 92 91 91 82 81 66 58 56 54 50 50 51 50 58 87 98 100 100 97 86 82 95 100 96 92 84 84 77
100 100 100 100 98 85 82 76 73 64 60 55 52 51 52 53 53 62 62 67 73 76 86 87 91 98 100 100 100 91 88 91 100
100 100 99 92 83 82 76 67 64 59 56 55 53 49 50 50 54 62 90 97 93 91 92 100 100 100 100 100 100 98 99 100 100
94 89 83 77 77 72 68 70 59 60 62 56 54 55 55 61 69 85 100 100 100 100 100 100 100 100 100 100 100 100 100 100 100
88 76 74 68 69 71 65 67 66 64 54 54 49 57 64 64 91 100 100 100 100 100 100 100 100 100 100 100 100 100 100 100 100

GFSFLT1_250_rhum_066.txt.gz
RH
60 35 27 23 24 26 24 24 24 31 32 35 40 39 39 33 29 27 25 26 30 30 30 27 23 21 23 27 27 32 32 34 35
35 26 24 25 27 24 25 25 27 32 36 40 40 35 31 25 23 26 30 34 32 27 25 24 26 31 31 31 32 35 40 41 41
27 26 26 27 26 26 28 30 32 38 38 40 37 34 32 28 28 31 33 32 31 29 24 26 30 30 34 34 38 42 45 50 52
28 28 29 27 27 26 29 34 42 44 44 40 36 33 32 30 30 29 31 34 30 25 25 26 29 34 36 42 46 51 50 50 59
33 31 29 28 29 28 38 47 51 49 46 41 36 34 35 35 34 34 35 31 27 28 33 32 34 38 41 52 74 76 62 62 66
32 30 29 29 28 36 55 61 57 50 44 39 38 38 36 36 37 33 31 28 28 30 35 37 37 41 52 67 76 86 81 71 67
31 31 29 28 32 43 48 48 42 44 38 39 40 44 38 39 34 32 34 37 36 37 40 41 38 46 62 70 75 92 90 82 77
32 29 29 30 31 33 38 39 44 44 43 41 43 41 39 40 37 42 44 50 44 43 43 44 42 51 54 61 78 84 92 76 83
37 35 33 30 29 29 38 42 52 51 45 43 43 42 47 50 56 57 57 54 48 45 49 48 44 50 58 64 96 100 100 100 93
47 39 36 34 34 50 52 58 62 52 50 59 55 57 71 77 74 65 63 58 52 56 51 48 47 51 50 67 83 97 100 100 100
58 48 44 42 65 62 64 64 62 67 68 66 65 73 92 85 76 67 72 64 60 55 52 50 50 55 50 72 76 84 100 100 100
65 56 58 84 80 76 69 72 76 81 80 76 97 99 87 80 70 73 71 55 55 54 53 54 57 59 50 81 98 88 98 100 100
64 58 74 80 76 67 74 87 94 97 92 91 90 80 78 69 77 74 63 61 59 55 55 53 59 61 67 78 100 100 95 94 100
63 75 86 87 83 91 99 100 100 100 96 90 83 82 75 71 78 68 62 62 57 56 55 57 58 64 61 61 67 86 98 98 100
86 99 100 100 100 100 100 100 100 100 95 82 92 87 73 76 70 63 64 64 57 55 58 64 68 84 80 77 75 72 80 89 100
100 96 91 95 100 100 100 100 100 100 93 96 84 72 73 70 66 67 64 58 59 64 67 81 99 100 100 100 100 100 93 88 100
100 100 100 100 100 100 100 100 99 96 91 79 67 69 60 67 65 58 54 58 81 93 100 100 100 100 100 100 100 100 100 100 100
100 100 100 100 97 91 98 95 90 81 79 80 70 55 63 66 58 54 58 73 92 100 100 100 100 100 100 100 100 100 100 100 100
99 96 98 93 92 100 99 87 92 82 74 67 62 66 64 58 50 53 56 92 81 75 63 61 96 100 100 100 100 100 100 100 100
100 99 82 88 95 82 96 88 82 76 75 70 74 66 60 50 41 32 31 38 32 34 36 56 100 100 100 100 100 100 100 100 97

GFSFLT1_250_rhum_069.txt.gz
RH
87 92 88 62 34 25 22 25 23 22 25 29 34 37 43 40 38 35 35 33 32 31 30 29 26 26 24 26 31 29 37 44 62
100 91 67 38 26 25 26 26 25 24 27 31 38 48 44 40 33 35 35 32 31 31 28 27 26 26 27 30 33 34 40 66 68
89 74 42 29 28 29 29 27 26 27 27 35 47 47 40 37 34 34 35 34 30 30 26 28 31 32 34 33 40 38 38 54 61
69 52 36 32 32 32 29 28 28 26 31 37 42 37 34 37 35 38 35 31 30 27 30 36 39 41 41 41 45 42 38 39 57
65 47 37 35 33 32 30 29 27 27 30 30 28 27 32 40 39 37 35 34 36 39 43 47 51 44 45 48 48 45 42 42 44
46 41 38 36 33 32 31 28 29 29 29 27 30 32 39 43 41 41 38 38 44 53 58 59 56 56 53 51 50 47 47 50 48
37 37 40 38 36 34 34 32 30 30 31 34 39 47 46 44 48 46 48 48 59 70 70 59 63 61 58 55 52 51 49 56 60
42 41 39 39 38 40 43 41 36 34 37 38 52 56 53 57 60 58 57 73 74 76 69 66 66 64 61 61 56 57 58 56 70
46 45 42 40 41 45 47 45 42 37 41 54 63 64 69 74 67 71 79 83 79 71 72 63 66 68 70 62 58 69 63 56 71
49 49 50 46 49 51 53 55 49 48 55 63 70 68 78 78 82 75 81 79 72 74 68 68 66 66 70 60 63 74 79 65 73
67 71 60 56 58 63 65 66 71 65 72 84 72 80 89 86 81 75 79 71 74 75 74 66 68 69 60 62 74 82 71 81 79
86 73 68 66 69 75 78 78 81 83 91 80 87 87 89 89 90 90 82 80 80 74 68 67 67 60 60 67 74 76 90 82 90
76 70 70 79 85 86 88 91 89 95 88 82 81 87 94 94 94 89 90 86 71 70 64 67 61 56 64 95 99 99 99 99 85
79 80 83 90 94 93 84 86 91 82 80 90 96 92 88 84 86 95 86 80 75 69 65 59 55 57 73 92 100 100 100 100 100
93 100 98 91 90 87 82 87 99 100 98 96 91 82 78 87 95 82 81 78 74 58 56 50 58 81 100 100 100 100 100 100 100
100 96 89 92 100 100 100 100 100 100 99 93 82 83 85 88 81 81 75 73 62 55 48 56 74 94 100 100 100 100 100 100 100
100 98 100 100 100 100 100 100 100 99 94 87 79 80 86 84 84 71 66 62 57 51 51 62 74 70 60 74 89 99 100 100 100
100 100 100 100 100 100 100 100 100 96 94 82 82 74 85 83 88 79 65 58 50 47 40 32 25 25 31 37 46 59 72 100 100
100 100 100 100 100 100 100 97 89 87 85 82 85 82 68 70 76 68 58 50 45 29 20 19 23 33 42 40 51 62 75 99 88
84 88 83 84 76 78 81 87 84 86 83 82 88 81 78 74 63 57 43 35 20 16 16 20 28 34 36 35 49 52 62 100 89

GFSFLT1_250_rhum_072.txt.gz
RH
100 80 74 84 99 90 58 30 27 24 27 26 25 25 26 28 29 26 26 37 36 38 33 30 29 28 33 37 40 39 43 45 48
87 77 100 100 93 67 34 30 29 30 29 27 26 25 26 25 23 28 32 39 37 38 35 32 30 34 40 45 45 44 47 54 53
96 100 100 92 84 58 37 31 31 31 30 28 27 26 25 23 22 29 32 37 37 34 34 32 34 43 49 54 50 49 50 58 57
100 100 89 80 66 46 35 33 33 32 31 31 29 27 25 25 25 32 35 36 37 39 38 38 48 55 58 59 57 55 57 61 55
96 87 85 79 64 42 37 38 35 34 34 35 33 32 32 31 32 36 39 43 45 47 46 54 59 62 64 67 61 61 60 63 57
99 92 82 67 46 40 40 39 39 37 39 39 36 38 40 38 43 41 43 46 52 57 63 64 69 70 68 64 65 67 67 63 61
78 83 78 58 44 44 42 41 39 39 45 42 44 42 46 45 46 48 53 56 65 63 68 71 77 68 67 66 65 70 69 63 63
61 64 55 47 44 44 44 43 43 46 48 54 54 56 54 54 52 59 66 70 65 69 76 77 69 68 70 65 71 70 61 60 68
70 64 57 52 50 50 49 52 52 53 55 60 60 56 63 68 65 76 84 80 77 85 79 66 66 69 67 71 76 63 58 65 84
78 74 67 63 64 60 58 66 67 59 61 66 64 65 74 78 77 81 86 83 87 81 66 66 68 67 68 76 65 57 57 73 91
79 82 86 87 80 75 82 75 67 66 80 71 73 88 90 94 90 91 85 81 81 67 72 71 66 73 73 68 58 54 64 87 94
79 77 82 88 84 80 74 73 76 86 82 76 84 99 99 98 95 83 79 76 77 76 76 70 77 73 67 58 52 52 75 99 100
80 77 76 79 82 83 77 80 93 92 78 91 91 100 100 99 86 78 84 80 78 80 71 82 70 67 56 51 51 64 79 100 100
86 84 76 75 81 85 84 93 85 81 84 95 100 96 92 81 86 89 88 80 81 73 78 70 69 57 52 49 60 76 73 73 94
87 88 93 95 97 93 91 86 84 81 96 100 96 88 77 86 94 87 80 79 76 82 73 71 59 52 46 48 47 38 37 47 66
89 98 97 88 100 100 94 91 89 100 100 95 86 82 89 95 84 79 75 77 81 73 70 60 54 48 39 32 23 27 31 37 43
100 100 100 100 96 94 91 93 100 100 86 80 80 93 92 80 75 74 77 86 81 74 67 56 47 36 26 21 26 29 40 46 49
100 100 99 96 99 100 100 100 99 84 92 93 90 78 76 78 82 89 86 85 76 67 59 48 34 21 18 22 30 36 36 35 39
100 100 100 100 100 100 99 99 99 100 100 93 81 74 73 81 86 85 83 82 71 58 48 36 20 19 19 25 34 29 25 30 27
100 100 100 100 100 100 100 100 100 96 91 82 77 75 85 83 81 79 88 76 58 49 33 21 18 22 24 30 26 24 28 27 33

GFSFLT1_250_rhum_075.txt.gz
RH
100 100 100 87 78 77 98 95 73 46 29 30 30 29 29 28 25 24 26 26 25 29 31 32 28 29 30 33 38 40 46 48 51
89 98 89 86 87 100 100 92 71 44 34 32 30 30 31 32 32 29 30 31 32 34 31 32 29 31 35 37 42 50 48 51 54
90 90 89 100 100 100 92 83 66 45 34 32 31 32 32 36 35 30 34 36 37 34 35 33 32 40 40 47 54 51 55 57 60
100 100 100 100 100 99 91 84 64 45 35 34 34 33 35 40 39 35 38 42 41 36 37 39 45 51 52 62 58 58 58 57 68
100 100 100 100 99 90 84 74 55 41 38 37 36 38 41 40 42 40 46 44 42 40 44 54 60 62 62 68 61 61 58 64 71
100 98 97 100 93 91 86 73 53 43 40 39 42 44 48 49 46 50 49 47 47 47 54 62 73 70 70 67 67 65 64 72 76
90 92 90 93 91 85 84 66 52 49 46 46 49 52 61 55 54 52 51 50 47 55 70 85 79 70 70 66 65 62 69 79 72
81 85 80 70 65 66 64 59 58 57 54 54 59 70 63 59 62 57 56 51 53 67 82 80 72 76 70 66 62 65 75 71 62
72 72 73 68 69 65 64 66 63 64 66 69 68 66 65 64 61 56 57 56 64 72 75 75 75 76 67 62 68 69 73 62 57
80 73 70 73 77 77 76 78 76 77 74 73 71 76 75 71 60 65 66 69 81 85 80 75 72 68 63 68 67 69 62 54 58
85 80 75 80 74 77 76 74 73 77 74 76 84 88 84 76 70 77 73 84 88 90 80 73 72 64 63 68 69 59 52 52 61
82 84 84 80 87 76 76 79 84 78 83 87 94 89 83 78 81 77 89 94 91 77 72 74 64 60 66 65 63 52 46 54 67
95 98 95 94 83 80 89 90 80 85 89 93 98 91 82 82 79 91 91 86 73 71 70 64 64 68 74 58 56 52 41 39 39
95 97 94 87 88 93 89 88 92 99 100 100 92 81 82 98 96 84 80 68 69 68 64 65 68 70 63 65 51 45 31 31 31
83 85 81 86 98 98 99 100 100 100 99 85 84 87 100 98 83 81 77 72 74 73 70 67 66 64 58 58 54 33 21 24 25
94 97 92 98 100 100 100 100 100 97 82 92 98 100 94 84 70 75 84 90 84 78 69 75 70 62 64 57 50 23 20 23 30
100 100 100 100 100 100 100 97 88 90 88 85 87 96 96 84 84 89 99 93 92 83 84 74 70 68 64 58 32 20 22 27 36
100 100 100 100 98 100 94 94 100 100 100 100 89 82 87 92 100 100 98 99 94 89 85 79 74 70 59 45 23 19 22 29 34
100 100 100 100 100 100 100 100 100 100 99 88 85 92 100 100 100 100 100 99 100 95 82 83 78 65 54 28 20 20 23 33 33
100 100 100 100 100 100 100 100 100 100 100 100 100 100 99 98 85 91 93 100 97 94 86 83 72 58 35 23 20 25 30 35 30

GFSFLT1_250_rhum_078.txt.gz
RH
100 100 100 100 100 95 84 88 94 100 92 72 51 35 32 30 30 30 34 35 36 31 31 37 36 30 30 32 39 61 50 48 53
100 100 100 99 99 88 81 100 100 91 87 79 59 44 33 32 33 33 34 33 41 34 36 41 34 31 35 39 49 58 52 59 57
78 80 80 90 71 76 100 100 100 94 88 79 64 46 35 37 36 40 36 42 41 38 45 40 38 35 39 46 52 64 67 63 52
55 64 89 97 98 100 100 100 100 90 79 74 55 43 40 38 43 43 44 43 44 44 46 43 44 41 49 55 65 72 68 62 52
100 100 100 100 100 100 100 98 95 85 85 71 58 47 44 44 45 45 53 48 48 48 47 47 48 46 54 64 75 74 70 55 53
100 100 100 100 100 97 97 93 84 74 72 70 57 54 54 50 51 56 56 54 52 51 52 51 50 52 62 74 80 70 60 54 56
100 100 100 100 90 86 85 78 72 68 65 65 63 66 64 65 66 66 64 64 62 59 52 48 54 59 74 93 75 62 53 52 57
100 100 97 91 94 87 86 81 75 73 74 68 67 72 70 67 70 69 68 63 65 57 52 59 66 72 82 74 61 57 50 53 63
78 67 64 71 69 70 72 71 68 68 65 68 70 67 64 69 75 68 67 72 62 55 54 68 75 72 71 62 55 51 49 58 67
57 57 61 68 73 70 72 74 77 77 80 76 74 70 80 75 72 70 75 71 63 61 71 78 66 72 65 56 51 51 53 64 62
70 68 72 84 80 84 81 85 86 89 83 81 85 88 82 81 86 84 75 70 73 77 80 69 66 70 58 55 54 56 62 64 66
74 75 78 83 92 89 91 94 87 85 82 86 94 95 99 100 90 82 72 84 85 85 70 62 67 56 59 56 59 64 68 65 72
81 83 85 87 82 88 91 91 92 84 86 90 100 100 100 95 86 76 81 88 74 70 63 62 58 63 64 60 62 66 74 73 70
80 80 80 85 86 89 89 91 88 88 96 100 100 100 99 88 86 86 73 75 79 67 58 61 70 70 64 68 68 73 72 77 68
80 82 83 86 92 100 98 96 97 100 100 100 100 100 90 85 83 93 100 82 68 59 66 76 75 68 68 70 70 71 72 70 52
85 86 90 92 99 99 99 100 100 100 99 100 100 94 92 95 92 90 80 64 68 76 79 76 69 76 75 73 80 79 63 42 42
90 92 93 97 100 100 100 100 99 100 100 100 100 100 100 97 95 83 70 78 85 80 80 71 75 82 71 78 78 64 37 36 33
98 100 100 100 100 100 100 100 100 100 100 94 98 99 100 100 98 90 87 95 90 81 76 76 87 83 76 74 64 40 34 32 27
100 100 100 100 100 100 100 100 100 100 100 96 97 88 82 82 89 99 96 97 82 90 81 85 85 79 81 66 50 40 27 31 27
100 100 100 100 100 100 100 100 100 100 100 100 96 90 94 97 97 100 92 90 96 91 87 89 89 84 74 61 48 35 29 30 29

GFSFLT1_250_rhum_081.txt.gz
RH
40 100 100 99 88 100 100 100 95 83 100 100 90 89 88 76 61 48 37 34 34 36 39 42 41 37 38 37 35 35 39 44 50
60 95 81 100 100 100 97 100 83 89 100 100 96 90 85 75 60 46 40 37 38 38 44 44 42 40 40 39 41 41 47 49 60
26 60 73 95 93 91 81 78 99 100 100 100 96 88 80 72 58 49 44 46 45 50 52 51 49 44 43 44 43 44 50 52 57
25 27 31 47 51 66 96 100 100 100 100 95 94 77 73 67 61 51 53 51 54 58 58 54 49 48 47 48 47 51 53 56 54
25 34 74 82 91 100 100 100 100 100 91 86 75 71 61 60 61 62 63 61 59 59 54 52 50 52 46 53 50 51 53 58 55
32 69 98 100 100 100 100 100 100 92 88 80 68 62 63 62 64 64 65 61 60 60 57 56 58 51 47 51 51 50 56 51 50
81 97 100 100 100 100 99 97 88 77 70 70 71 72 70 68 73 70 65 63 66 62 64 56 53 46 45 48 48 51 51 49 49
92 100 100 100 100 87 93 80 72 67 66 68 67 69 71 74 72 64 62 66 64 63 62 59 50 44 48 47 50 49 48 51 54
80 100 100 100 99 88 73 66 67 69 70 70 73 74 76 75 71 62 71 66 64 68 59 49 51 50 48 52 51 50 54 57 53
66 80 94 92 76 65 61 62 68 70 74 78 80 86 74 74 68 81 74 76 77 63 53 54 53 51 56 56 55 56 61 56 54
40 45 46 49 52 56 67 76 78 81 85 82 88 86 76 74 96 94 83 84 75 55 58 58 54 59 56 59 66 63 59 56 61
64 63 66 63 66 70 81 80 86 81 79 86 84 84 81 99 99 77 83 83 63 60 58 60 64 60 62 74 65 62 54 61 74
66 70 74 75 78 80 78 77 80 83 87 90 95 84 99 100 83 89 83 69 59 60 57 59 64 63 67 67 63 60 73 63 66
68 69 70 74 76 78 79 79 82 84 87 88 94 100 99 85 99 84 76 64 67 64 62 70 63 69 62 66 62 62 68 74 81
70 73 74 77 80 79 82 84 86 92 93 100 100 100 85 87 91 87 76 75 72 70 73 62 70 65 60 62 62 59 81 72 80
78 82 85 85 83 84 84 86 91 96 100 100 100 90 94 100 100 82 88 81 73 72 65 73 64 62 66 64 65 73 73 78 63
93 94 96 91 88 88 89 92 96 100 100 99 94 100 100 100 100 100 87 82 76 68 64 65 67 74 68 73 74 75 86 81 63
100 100 100 100 100 100 99 100 100 100 100 100 100 100 100 100 100 100 89 81 79 70 69 69 74 70 66 69 71 72 79 64 46
100 100 100 100 100 100 100 100 100 100 100 100 100 100 100 100 100 99 90 95 77 78 74 73 71 70 70 68 72 69 62 53 41
100 100 100 100 100 100 100 100 100 100 100 100 100 100 100 100 100 100 99 96 97 79 85 74 80 75 72 66 70 63 61 45 46

GFSFLT1_250_rhum_087.txt.gz
RH
27 23 27 30 29 30 33 74 100 100 97 100 100 98 76 97 100 97 89 74 63 52 45 46 46 46 48 47 40 40 37 38 33
26 24 25 26 28 30 71 64 100 100 99 99 92 63 81 100 100 91 78 64 55 46 50 49 55 51 47 43 38 37 36 34 33
29 27 25 26 28 30 44 55 50 58 64 61 50 98 100 100 95 83 73 60 47 49 53 55 58 58 49 44 36 34 33 35 36
32 28 27 27 28 28 26 25 26 28 31 48 96 100 100 98 99 82 70 52 52 62 57 64 60 61 54 43 36 35 34 37 36
34 34 32 31 28 27 26 27 28 37 82 96 100 98 100 95 90 72 54 51 60 64 58 64 61 63 54 46 37 33 34 36 36
39 35 36 33 28 28 27 28 34 44 95 100 97 95 92 85 80 56 51 54 65 72 68 61 63 59 54 42 36 36 36 38 39
36 38 39 37 34 30 28 29 35 86 100 100 90 93 89 90 72 49 54 61 74 76 71 62 65 54 52 42 38 36 39 41 42
36 36 37 39 37 33 31 31 46 85 100 100 95 98 87 77 57 49 66 76 76 74 62 68 59 58 49 38 36 39 42 44 44
41 36 38 36 43 41 36 37 52 68 99 96 100 97 74 53 52 66 74 76 78 76 76 66 66 51 45 39 40 41 44 43 42
54 44 40 39 41 45 44 44 45 58 73 71 86 60 48 56 69 72 75 77 79 79 83 75 54 49 42 46 45 43 42 46 45
69 55 52 48 51 47 46 50 51 49 49 57 51 54 64 67 72 76 78 80 81 87 82 60 57 56 52 54 50 42 44 47 59
83 77 62 57 52 53 51 53 56 62 66 68 69 69 71 77 77 76 76 79 94 98 69 66 66 62 59 59 49 49 49 62 66
98 97 88 71 64 60 58 59 63 66 70 73 74 74 76 78 76 74 88 100 98 81 77 70 67 68 72 61 63 62 73 70 77
100 100 96 92 86 77 72 68 70 68 68 70 72 74 76 75 90 100 100 78 94 93 90 81 74 82 79 84 86 83 83 94 80
100 100 100 100 100 100 99 97 87 84 83 86 88 89 95 100 100 100 81 89 98 96 92 100 100 94 84 92 96 97 94 90 82
93 100 100 100 100 100 100 100 100 100 100 100 100 100 100 100 90 96 97 98 95 93 92 100 98 100 100 100 100 100 94 93 84
97 96 100 100 100 96 100 100 100 100 100 98 100 100 95 70 96 97 92 89 94 98 100 100 100 100 100 100 100 88 79 87 75
100 100 99 91 87 92 86 86 89 98 100 96 87 71 83 99 95 91 88 86 97 100 100 100 100 100 100 100 100 84 86 70 70
100 100 98 77 89 86 80 88 93 99 94 85 86 87 90 91 92 87 82 96 100 100 100 100 100 100 100 88 91 80 69 70 58
92 98 87 100 100 100 100 100 98 100 100 99 92 75 78 84 76 96 100 96 100 99 100 98 100 94 98 87 84 79 68 55 57

GFSFLT1_250_rhum_090.txt.gz
RH
32 31 29 29 27 24 26 25 28 32 65 100 100 100 91 83 77 73 93 98 88 76 67 43 37 36 43 45 48 45 35 32 29
31 31 30 29 29 28 24 26 27 39 52 42 50 60 57 51 75 94 96 94 92 75 62 41 38 40 46 49 49 42 36 33 32
37 34 33 30 31 30 28 28 28 29 30 26 27 31 43 82 100 99 98 90 88 67 50 44 42 48 54 52 51 39 38 33 32
43 40 37 34 34 32 30 29 28 28 27 26 28 32 94 97 100 96 89 92 90 63 54 55 54 55 54 51 51 42 37 34 31
46 43 42 40 40 36 34 33 29 28 28 29 34 47 98 100 98 96 95 89 77 57 56 63 61 59 55 64 49 43 38 34 31
43 42 41 40 40 37 37 35 32 31 29 30 31 65 100 100 97 91 94 84 74 54 70 69 67 60 64 65 50 42 37 36 33
40 38 39 37 35 36 40 42 37 35 31 30 36 49 99 98 100 99 99 75 55 62 75 73 73 64 68 61 44 42 42 33 34
50 42 38 38 34 33 38 41 43 43 37 37 39 50 86 87 82 93 82 55 62 71 77 79 70 72 76 54 46 43 39 34 36
63 52 45 50 43 35 35 38 39 42 44 44 48 50 63 82 94 89 61 72 70 74 72 66 79 82 58 52 52 49 41 39 43
73 67 57 53 54 54 49 46 45 44 43 46 48 48 54 57 61 68 72 74 76 70 71 94 100 66 64 62 57 51 43 49 55
82 70 64 64 64 69 62 56 52 50 51 54 58 62 66 70 74 74 73 70 65 71 98 100 90 84 78 67 62 46 53 63 68
97 91 77 67 62 72 68 70 68 63 61 61 61 65 66 67 66 66 63 65 77 100 100 90 86 88 81 77 67 68 64 68 74
100 100 100 87 76 74 79 74 72 75 80 80 80 77 76 72 76 78 77 93 100 96 99 99 94 78 85 76 75 76 72 78 80
100 100 100 100 99 96 90 88 88 98 100 100 100 99 97 89 86 89 99 100 72 83 95 100 92 97 90 90 90 95 91 95 76
100 100 100 100 100 100 100 100 100 100 100 100 100 100 100 100 99 99 72 66 76 84 100 98 99 95 96 99 96 95 77 86 80
100 100 100 100 100 100 100 100 100 100 99 87 100 100 100 100 99 86 90 100 90 93 99 93 88 88 89 95 97 91 84 84 90
100 100 100 97 94 100 100 100 100 100 100 92 90 95 96 95 92 100 87 79 91 92 90 76 79 83 96 92 90 96 86 93 90
100 100 100 100 100 99 93 93 100 100 98 97 100 99 100 100 100 98 100 82 81 74 76 92 92 100 96 100 98 99 97 100 85
100 100 100 88 87 77 71 74 91 98 100 100 100 100 100 100 100 92 84 85 78 76 87 99 96 100 100 100 100 100 100 96 81
88 99 100 100 94 83 83 100 100 100 100 100 99 90 85 97 80 73 65 74 83 97 100 100 100 100 100 100 100 100 93 87 84

GFSFLT1_250_rhum_093.txt.gz
RH
37 35 34 30 30 30 28 27 28 27 27 26 32 70 60 50 44 47 60 79 92 90 81 81 85 53 33 41 46 52 52 53 42
35 34 33 35 35 36 31 30 30 29 30 29 30 33 35 30 33 54 89 89 96 99 86 88 68 49 36 46 48 49 55 53 42
40 42 40 39 38 38 35 34 35 33 32 32 30 29 29 31 36 56 97 96 100 98 95 86 77 45 43 51 51 52 54 53 44
49 48 46 45 42 41 39 38 38 34 36 34 29 29 30 31 37 82 100 100 100 99 100 85 66 48 55 52 50 57 57 45 46
54 49 49 47 41 38 39 39 39 39 39 34 33 33 31 31 37 78 100 100 100 100 100 73 56 60 53 49 53 69 53 50 52
58 54 53 46 38 37 36 35 35 37 37 39 38 38 34 34 37 53 100 100 100 100 90 73 64 60 49 59 75 59 54 55 57
63 66 57 49 41 35 32 30 32 33 33 35 35 38 42 42 45 52 75 91 88 80 67 68 69 62 58 74 78 60 55 59 58
65 73 63 60 55 48 45 40 36 32 33 34 33 33 36 41 47 53 57 58 62 67 67 72 68 61 72 87 68 64 64 67 61
68 72 69 62 62 62 50 46 42 45 48 48 46 48 49 50 50 54 59 63 64 67 71 67 64 77 88 86 74 71 73 72 58
76 74 79 80 73 67 61 56 54 53 57 58 58 58 61 61 61 59 62 65 68 69 71 77 86 82 95 82 83 74 75 73 67
86 97 97 99 97 85 74 69 67 61 58 59 62 69 71 71 73 77 76 74 73 82 90 97 76 77 87 82 78 86 81 73 64
98 100 100 100 100 94 81 75 79 74 68 70 78 80 83 92 100 99 96 85 93 99 85 76 91 85 89 89 84 76 63 61 54
100 100 100 100 99 92 100 93 88 88 92 84 84 90 91 92 92 85 74 73 79 86 98 100 85 90 87 75 74 72 67 60 56
100 100 97 91 100 95 100 100 100 100 100 100 100 100 97 89 68 70 77 93 93 98 100 99 99 92 78 77 74 69 62 70 64
100 100 100 100 99 100 96 100 100 98 100 90 92 100 100 96 95 88 87 100 100 100 100 100 97 84 78 83 81 75 68 72 86
100 100 100 100 100 100 100 100 100 92 100 100 100 84 91 100 100 100 100 100 100 100 93 97 85 83 89 85 83 70 92 95 100
100 100 100 100 100 97 99 98 100 82 76 62 54 58 70 96 99 100 100 100 98 90 80 72 69 80 80 77 87 98 100 100 100
100 100 100 100 100 100 96 86 96 93 78 75 78 77 89 96 100 100 96 98 100 86 77 65 82 82 87 98 100 100 100 100 100
100 100 100 100 98 89 74 78 78 66 71 86 100 99 100 100 100 100 100 92 88 71 97 99 98 100 100 100 100 100 100 100 100
97 100 100 100 100 100 100 100 100 83 100 100 97 95 91 92 95 79 75 74 69 100 100 100 100 100 100 100 100 100 100 100 100

GFSFLT1_250_rhum_096.txt.gz
RH
37 39 43 40 35 35 35 35 34 33 30 30 31 32 33 30 31 30 34 39 62 90 82 84 82 88 74 54 44 40 43 50 58
43 38 42 37 36 36 36 36 37 38 36 37 33 34 35 30 30 30 31 36 74 91 89 80 87 92 72 53 46 46 44 57 64
53 42 45 40 35 35 39 38 36 37 38 41 39 37 36 30 32 32 32 35 63 95 90 82 93 73 56 61 46 50 50 61 59
50 47 44 42 45 39 39 37 32 32 34 34 33 35 38 36 36 36 36 38 42 80 88 93 83 60 52 49 50 50 58 67 58
54 51 48 46 47 45 45 37 32 30 28 28 29 32 34 35 40 43 43 44 44 46 49 47 45 44 50 54 53 59 70 65 62
57 54 51 51 51 52 50 40 33 32 29 28 29 31 32 32 34 36 40 40 40 42 44 48 50 53 58 64 66 71 72 67 61
68 64 59 57 55 57 57 47 44 43 39 37 39 44 46 47 49 52 53 54 52 53 55 60 63 66 70 72 76 82 77 76 74
66 70 73 72 62 58 58 57 52 48 50 46 45 43 47 52 57 62 65 64 64 64 69 72 74 74 79 86 98 86 89 82 65
70 68 73 76 75 66 60 68 68 63 58 56 57 59 58 60 61 66 70 72 69 75 83 88 76 67 83 97 78 85 77 68 67
89 87 87 74 69 76 83 88 89 82 72 70 66 63 62 64 64 61 64 63 67 83 84 76 70 90 83 92 90 74 76 67 64
100 100 98 91 67 69 69 97 100 97 83 72 72 67 72 79 81 84 81 82 73 70 64 82 74 94 100 100 84 78 70 62 62
100 100 100 100 99 86 63 98 93 100 81 91 95 94 100 100 94 100 92 98 90 66 74 85 99 100 100 95 82 76 62 51 53
98 100 96 96 100 100 100 100 100 96 95 94 100 100 100 99 95 82 99 100 79 95 98 100 100 100 100 86 83 73 59 59 56
78 84 84 97 100 99 100 100 100 100 100 100 100 99 98 79 63 65 68 57 72 92 100 100 94 100 100 94 80 74 70 68 71
100 100 100 100 100 100 100 99 100 100 100 100 100 100 100 88 58 75 71 59 77 92 85 76 93 100 87 74 71 71 81 84 94
92 100 100 100 100 100 100 100 100 87 67 57 75 78 59 64 72 75 85 85 91 88 94 84 96 83 71 73 71 84 92 94 100
56 67 82 96 96 100 98 100 100 100 98 100 98 86 82 74 84 75 80 94 82 72 62 84 74 63 61 68 76 92 99 100 100
62 89 91 100 100 100 89 83 73 72 76 72 69 75 97 95 88 67 81 68 68 74 66 86 87 87 84 88 94 100 100 100 100
91 100 100 100 100 100 100 98 92 81 86 98 99 100 98 91 99 89 82 76 92 80 96 100 92 99 88 78 100 100 100 100 99
85 87 100 100 100 100 100 100 100 100 100 100 100 100 100 90 74 93 92 86 93 100 100 100 91 95 93 100 100 100 100 100 100

GFSFLT1_250_rhum_099.txt.gz
RH
40 44 38 37 31 33 43 40 35 33 31 32 30 34 36 35 35 33 30 32 32 32 36 65 63 55 48 50 50 38 40 49 51
52 49 48 47 39 36 38 34 32 34 33 31 32 32 32 34 36 36 33 35 35 36 37 37 39 34 40 40 41 45 50 57 62
62 55 50 50 48 40 38 37 36 36 36 31 31 27 28 27 28 31 32 35 37 36 36 34 33 36 40 47 50 52 57 67 67
70 63 58 50 49 45 41 39 36 38 34 29 29 27 27 28 29 28 29 32 36 41 43 44 44 48 52 56 54 56 62 68 64
75 71 61 53 48 45 41 38 40 41 37 31 31 32 31 36 41 44 45 48 49 50 50 52 50 52 61 67 63 68 69 81 73
73 78 72 56 47 45 45 46 45 42 46 44 42 39 36 42 48 52 51 51 50 52 56 56 51 57 64 59 64 62 84 82 77
75 78 68 63 56 55 57 55 52 48 44 51 53 52 50 50 52 54 53 50 49 52 54 55 57 60 68 63 64 68 85 89 89
100 97 78 68 64 58 61 62 61 58 52 53 57 58 60 59 58 54 45 48 57 60 72 59 73 68 61 51 75 98 98 99 90
100 100 95 91 78 58 60 62 60 62 79 89 96 86 71 68 54 56 70 69 70 74 60 67 54 54 64 78 91 99 94 86 92
99 100 100 100 99 68 69 67 71 61 63 71 98 81 70 62 67 69 69 79 80 78 71 86 60 60 76 96 100 91 92 98 84
100 100 100 100 88 74 95 99 95 81 66 57 100 88 84 76 67 87 98 100 100 75 61 72 55 71 89 100 90 68 89 84 71
100 96 81 81 82 61 50 76 82 87 87 100 100 100 99 74 90 100 100 100 95 70 63 56 62 61 71 77 62 80 88 68 57
85 69 68 60 53 52 64 65 57 79 62 94 100 99 98 100 100 100 100 100 79 66 70 68 53 59 45 61 58 65 67 72 74
68 52 54 46 61 81 96 94 91 92 98 86 84 71 71 87 60 95 89 100 81 69 77 81 58 55 53 73 72 79 69 78 88
72 97 88 55 65 99 100 100 100 100 100 98 76 71 100 100 83 74 97 71 78 71 76 78 52 57 78 80 90 93 87 94 89
63 88 89 82 100 98 78 80 89 100 83 72 76 78 77 64 74 89 73 70 62 73 58 50 58 82 87 88 99 97 91 82 86
95 96 100 96 100 66 67 68 61 71 75 68 69 89 79 83 76 67 55 54 41 61 68 70 53 57 64 88 90 94 100 91 83
100 92 96 89 98 76 70 72 70 64 64 81 57 52 52 57 50 42 32 36 51 63 60 63 72 78 80 90 97 100 97 88 84
97 95 77 75 69 56 43 44 60 75 84 86 70 55 54 74 64 62 57 59 64 55 66 80 84 88 97 100 100 94 97 87 100
100 100 100 100 100 90 66 96 73 63 84 70 47 87 98 70 70 59 54 54 53 63 61 92 100 99 100 100 76 96 92 100 100

GFSFLT1_250_rhum_102.txt.gz
RH
58 55 48 41 43 40 38 37 34 35 33 30 31 30 27 26 26 28 27 27 28 29 28 29 32 36 39 42 50 53 57 57 53
61 60 58 55 48 46 43 45 42 38 35 32 32 31 25 24 24 25 26 25 26 30 36 39 40 41 42 48 54 53 58 60 55
56 60 61 61 57 58 52 45 44 41 40 34 32 30 28 26 26 28 31 35 40 42 39 40 42 44 50 50 47 56 59 56 54
61 66 64 65 65 64 53 49 42 41 41 39 38 34 32 32 32 34 38 40 41 43 47 45 45 47 54 46 42 47 38 47 76
59 56 67 69 68 65 63 51 43 42 43 44 41 44 43 44 46 41 44 43 44 46 47 51 54 56 42 42 50 45 48 73 88
69 64 64 75 80 70 62 58 53 45 46 49 48 44 50 49 48 48 44 41 46 40 46 51 60 48 52 46 47 42 70 99 99
77 86 85 80 76 73 72 64 55 52 54 54 52 50 53 59 58 54 58 56 45 49 56 65 65 66 58 60 46 41 85 100 93
100 100 100 100 100 93 72 68 68 56 58 52 58 59 74 83 100 72 52 56 58 58 53 93 87 79 60 52 41 38 51 65 66
100 70 60 82 100 100 86 100 89 64 53 68 63 64 75 92 74 74 74 70 64 60 100 100 96 81 63 51 56 53 57 55 66
100 98 83 80 98 100 100 100 85 77 67 49 76 66 61 55 100 92 83 64 61 84 100 100 98 73 59 48 69 52 55 68 75
100 89 73 74 95 98 100 84 83 87 63 52 67 50 51 54 78 94 84 81 86 100 100 95 80 60 52 50 43 48 48 67 71
96 80 96 75 77 64 78 78 76 70 74 69 68 65 62 57 84 100 93 77 81 61 57 77 52 57 58 50 46 51 60 68 72
79 85 62 55 65 83 81 68 49 42 64 85 93 73 67 58 59 56 68 64 93 96 82 65 56 63 48 38 45 59 71 75 86
100 86 81 74 90 82 63 71 48 58 81 79 100 100 100 86 89 85 82 96 96 91 95 77 59 45 42 47 54 50 61 95 91
95 73 74 75 73 66 69 64 64 65 97 85 92 81 78 88 93 71 65 66 82 71 77 62 53 33 33 45 51 48 58 74 100
100 100 93 76 69 68 55 53 76 100 90 89 49 53 47 58 39 32 36 36 58 72 75 47 41 34 41 48 50 53 58 74 81
100 99 97 86 61 61 74 80 99 97 79 81 84 72 63 43 34 37 29 51 46 43 39 37 36 41 37 45 50 47 54 70 97
96 72 72 78 84 92 86 73 70 68 71 69 74 48 42 32 34 26 22 35 31 27 30 41 39 35 52 36 43 47 58 63 84
82 100 81 79 65 82 94 88 97 82 64 63 57 54 51 36 47 37 26 30 30 61 44 41 50 47 41 42 54 59 72 79 89
100 100 99 100 100 100 99 100 100 100 99 100 98 100 100 100 100 68 55 58 70 60 58 68 58 45 56 53 64 92 95 100 100

GFSFLT1_250_rhum_105.txt.gz
RH
82 91 70 62 57 55 48 45 41 42 40 40 38 36 34 30 25 23 23 23 25 27 30 33 38 40 42 40 44 37 35 39 35
88 65 63 60 57 55 57 57 48 44 42 39 39 40 34 30 27 26 27 29 31 32 36 37 43 44 42 37 35 38 39 32 33
87 63 58 58 59 57 54 56 55 48 46 38 39 39 36 34 36 34 33 33 37 36 36 38 42 36 46 45 40 36 47 35 45
66 57 60 64 69 61 59 59 55 54 49 46 42 40 40 41 40 40 42 42 44 37 39 42 39 48 43 53 52 53 42 38 44
57 57 64 61 58 57 60 64 63 60 56 53 47 43 44 44 40 42 43 43 41 48 46 51 52 50 82 94 83 64 37 42 49
63 58 65 63 62 66 69 86 65 63 55 53 54 51 50 52 52 53 60 66 68 55 55 63 51 67 99 100 90 64 43 39 46
64 65 64 62 66 78 100 100 90 76 66 60 59 56 56 55 56 59 72 100 93 66 66 64 48 86 100 100 86 62 50 44 44
64 67 66 82 97 82 80 100 100 95 80 61 85 60 55 57 53 58 78 52 52 52 68 67 70 100 99 100 75 56 49 49 44
65 75 90 100 100 79 59 93 100 79 84 95 70 75 74 66 49 55 47 45 73 69 66 77 75 71 78 88 56 47 42 44 34
86 84 100 100 100 95 81 72 71 100 100 75 56 74 80 69 54 58 55 56 56 96 94 86 83 79 74 73 62 52 50 44 44
100 97 100 100 96 100 91 64 64 80 67 65 71 78 79 73 58 83 70 72 74 100 85 68 62 61 70 51 49 44 45 40 50
84 92 100 100 100 100 90 69 52 43 72 86 84 70 74 74 83 88 74 81 58 62 66 58 55 80 71 56 70 46 37 41 37
99 100 100 100 100 89 66 62 50 55 83 90 52 43 56 72 74 80 74 64 83 88 83 42 40 42 51 63 66 50 39 37 37
100 100 98 100 100 98 73 88 66 73 73 74 58 44 54 58 51 57 60 55 70 75 64 35 26 25 46 52 73 49 34 30 30
100 100 84 100 100 94 85 74 73 80 70 70 60 47 44 41 60 86 51 56 46 46 42 26 19 21 23 42 28 31 26 33 44
100 100 100 100 90 94 100 81 73 72 66 66 57 40 40 47 61 60 69 60 47 40 35 24 22 30 27 26 26 32 34 45 50
100 100 98 99 100 100 100 98 92 76 66 59 54 44 58 77 86 96 76 82 75 40 25 43 30 36 46 43 45 56 62 58 49
100 100 99 100 100 99 100 100 98 84 70 52 48 54 70 86 90 70 41 42 35 31 39 66 44 50 80 96 83 71 76 73 82
100 100 100 100 100 100 100 100 100 97 78 65 70 75 75 88 74 59 72 96 43 59 62 73 62 66 84 100 85 70 60 91 82
100 100 96 100 99 95 100 100 91 81 67 58 54 85 88 99 72 53 37 62 64 72 78 72 99 81 99 100 90 64 79 99 92

GFSFLT1_250_rhum_108.txt.gz
RH
42 65 63 92 74 67 60 54 50 48 42 42 40 39 35 35 35 30 29 28 28 28 30 30 32 36 36 36 40 45 38 42 34
44 45 70 88 66 59 54 46 44 48 48 47 43 42 35 36 35 32 33 33 33 33 36 36 37 39 41 39 47 70 44 56 38
54 50 67 90 78 64 66 54 52 48 52 52 51 44 45 40 36 38 38 37 40 38 40 41 45 48 48 42 47 71 65 49 57
52 55 52 65 64 63 65 63 55 51 58 61 56 50 49 49 45 41 40 39 43 44 47 51 49 54 52 48 39 74 99 71 53
61 59 56 58 58 59 61 59 62 56 73 58 57 57 50 52 53 51 48 44 44 50 71 92 60 59 54 49 71 83 100 95 63
70 59 58 59 57 49 49 56 64 82 100 78 87 74 62 50 55 55 54 52 50 58 98 58 54 64 64 52 74 84 76 57 47
74 58 56 51 48 46 54 72 80 100 100 100 95 52 47 54 64 60 55 50 49 62 63 50 80 82 67 66 63 65 86 64 47
76 69 57 52 50 53 61 79 100 80 75 99 98 69 62 45 62 68 69 71 63 54 44 45 83 88 74 70 57 48 71 64 52
73 65 58 58 52 59 73 100 100 88 59 70 75 96 61 51 76 63 53 76 63 51 63 82 84 95 95 57 45 37 42 56 67
77 63 67 73 72 75 90 100 100 100 85 61 54 59 54 76 85 68 68 79 64 64 56 70 60 74 50 48 33 29 44 62 65
88 90 89 85 86 98 100 100 100 92 100 85 57 51 47 68 60 73 54 59 60 58 69 67 63 61 58 50 36 24 25 42 44
100 100 99 99 100 100 100 100 96 99 85 74 54 48 47 65 66 60 46 43 44 42 50 64 62 66 54 46 40 23 26 27 30
100 100 100 100 100 94 100 100 98 61 60 72 67 65 69 72 72 59 50 47 38 42 44 56 40 42 33 30 28 26 25 26 26
100 100 99 100 100 98 100 86 89 74 89 100 84 74 84 86 83 68 49 43 38 39 44 54 60 39 27 30 29 31 35 37 40
94 99 100 100 100 100 100 100 99 87 99 100 82 73 90 84 80 69 60 47 42 33 38 35 31 21 24 32 42 33 46 51 79
99 75 92 81 91 74 98 100 100 94 100 100 90 88 77 74 72 65 56 46 35 30 25 25 26 34 40 42 44 48 54 71 81
84 79 78 78 98 92 100 100 100 100 100 97 85 85 82 82 74 56 50 42 35 33 32 39 37 33 52 60 49 50 60 94 94
68 81 96 100 100 100 100 100 100 100 100 100 100 100 100 97 89 76 55 44 45 39 34 38 39 60 60 58 60 60 65 77 86
100 100 100 100 100 97 100 100 100 100 100 100 100 100 100 99 72 50 57 57 43 33 34 45 63 83 74 91 92 83 80 82 78
100 100 100 100 100 100 100 100 100 100 100 100 100 100 99 84 69 62 56 39 51 47 64 49 72 82 98 96 100 94 100 77 80

GFSFLT1_250_rhum_114.txt.gz
RH
51 55 68 78 71 55 56 63 85 67 62 56 45 42 40 45 42 44 44 38 37 37 38 39 39 39 44 55 69 45 34 60 66
54 55 74 100 94 63 52 79 85 83 76 63 55 49 46 49 47 47 48 44 42 46 46 48 50 48 50 63 69 43 33 72 35
74 69 66 72 82 56 57 48 67 96 84 76 66 60 59 55 57 50 47 40 37 36 48 51 49 52 57 54 63 51 46 74 62
71 72 67 64 60 57 54 51 53 76 70 67 69 70 68 69 65 80 52 44 36 34 41 48 55 58 60 65 56 47 38 64 67
81 74 69 71 67 61 60 57 51 58 62 67 79 77 80 98 91 83 82 54 38 36 39 37 43 53 64 80 62 50 62 47 51
77 80 75 68 76 68 59 56 58 54 56 56 62 68 94 100 99 95 74 59 48 32 36 32 36 44 58 69 59 63 44 40 54
93 86 83 66 58 69 68 65 62 65 64 54 52 58 76 100 100 97 79 67 47 38 32 37 37 37 46 53 58 56 51 40 46
100 100 97 78 64 61 62 76 72 73 78 71 59 58 69 100 92 76 73 65 48 52 42 41 42 35 45 44 41 41 40 40 49
100 100 100 100 85 65 52 55 60 74 77 68 68 74 86 100 100 82 77 65 58 54 44 46 41 33 48 44 36 34 37 49 64
100 100 100 100 100 99 81 70 70 66 74 76 74 79 99 100 100 89 59 50 49 54 52 40 38 36 45 44 39 37 38 37 36
100 100 100 100 100 100 100 100 91 92 92 98 100 100 100 100 100 86 38 39 48 52 52 46 46 41 45 51 52 47 43 35 27
100 100 100 100 100 100 100 100 100 100 98 100 100 93 100 100 100 99 83 62 63 54 56 71 57 42 39 53 62 57 53 43 35
100 100 100 100 100 100 100 100 100 100 100 100 90 100 100 100 100 88 89 62 79 63 62 93 71 52 37 36 43 50 49 35 30
100 100 100 100 100 100 100 100 100 98 100 100 78 74 54 94 100 88 65 51 81 51 84 100 86 64 56 54 44 54 51 44 45
100 100 100 100 90 100 100 100 100 100 100 100 100 98 100 83 100 74 54 48 84 77 86 100 96 89 76 66 68 67 44 48 48
100 100 100 100 100 100 100 100 100 100 100 100 100 100 77 100 80 81 81 82 78 76 73 64 94 100 100 65 70 75 58 55 39
100 100 100 100 100 100 100 100 100 96 100 98 92 91 63 67 80 74 66 92 79 68 72 91 100 93 96 78 90 66 61 52 36
92 100 100 100 100 100 100 100 100 93 94 83 68 57 56 67 88 88 98 100 98 81 68 86 100 98 68 82 70 68 56 53 40
100 100 100 100 100 100 100 100 100 93 75 72 79 77 71 73 86 70 93 97 87 64 74 100 96 96 93 68 78 62 42 40 38
100 100 100 100 100 100 100 100 100 100 100 100 100 87 83 76 60 81 84 85 83 71 79 97 68 78 65 87 77 64 54 42 44

GFSFLT1_250_rhum_117.txt.gz
RH
48 49 53 66 55 58 59 61 52 59 82 70 71 63 56 51 49 45 42 42 41 35 34 35 50 51 58 57 58 62 68 62 48
65 55 54 51 48 69 80 76 64 56 81 86 82 70 64 58 57 53 46 45 41 36 36 32 33 37 40 54 64 68 70 52 45
71 71 65 59 55 51 61 75 55 57 50 65 87 78 66 72 63 58 60 61 46 44 35 35 30 29 40 44 53 82 77 54 42
74 93 88 83 72 59 56 52 50 55 57 57 61 64 69 76 71 71 68 54 61 57 44 38 28 29 35 38 36 58 72 61 48
64 81 94 86 82 72 65 63 56 60 62 63 60 60 56 68 74 100 93 98 90 64 55 46 34 31 34 44 39 54 65 67 52
65 76 84 86 91 80 73 77 72 62 61 67 69 75 65 61 64 74 100 100 87 70 52 45 39 32 31 39 42 46 52 47 45
98 86 84 91 95 92 81 81 85 84 78 80 74 87 83 67 67 71 98 100 96 82 66 51 50 38 31 29 31 43 46 38 39
100 100 98 89 91 92 88 79 78 79 74 78 88 88 92 75 65 72 94 100 97 56 69 66 38 40 39 37 32 39 50 41 44
100 100 100 98 92 100 100 100 93 86 78 68 67 65 65 71 71 90 100 100 98 60 48 39 49 46 42 45 39 37 51 49 51
100 100 100 100 99 95 96 100 100 100 100 94 89 89 86 95 100 99 99 100 100 100 81 74 60 57 57 49 52 40 43 49 57
100 100 100 100 100 100 87 97 100 100 100 100 100 100 100 100 95 89 98 100 100 97 83 62 65 68 62 54 50 46 43 42 47
100 100 100 100 100 100 97 91 100 100 100 100 100 100 100 98 98 100 99 95 75 76 54 55 55 82 73 62 45 60 49 49 51
100 100 100 98 100 100 100 96 100 100 100 100 100 100 100 100 100 98 100 98 100 89 66 42 50 52 71 68 61 79 75 65 68
100 100 100 91 100 100 97 100 100 100 100 100 100 100 100 100 99 100 97 100 98 65 58 38 49 69 75 70 58 70 87 80 71
100 100 100 97 89 100 100 100 100 99 100 91 93 100 100 86 86 87 100 96 77 81 50 59 53 55 71 73 73 66 99 93 97
100 100 100 100 100 100 100 100 100 92 100 100 100 100 100 100 100 88 70 99 75 53 50 58 59 77 82 81 87 81 100 86 96
100 99 100 100 100 100 100 100 100 100 100 99 95 100 100 100 74 54 49 63 56 67 61 59 61 58 59 74 67 64 88 93 96
100 100 100 100 100 100 100 100 100 100 100 100 94 100 100 100 86 86 87 82 78 65 66 66 74 67 56 52 55 75 97 82 84
100 100 100 100 100 100 100 97 100 100 100 100 97 96 100 89 87 84 82 74 61 42 67 56 53 50 45 40 45 65 62 74 93
100 100 100 100 100 100 92 100 100 100 100 100 100 94 96 100 100 99 61 42 52 57 44 46 65 57 51 43 38 38 57 90 100

GFSFLT1_250_rhum_120.txt.gz
RH
61 72 61 43 59 58 47 49 58 66 73 59 78 72 68 65 57 50 51 51 48 44 40 37 35 33 27 30 38 44 49 82 83
53 68 81 61 50 65 60 44 60 70 86 68 61 64 67 76 64 58 56 51 54 53 54 52 48 39 28 29 37 47 44 75 80
67 62 69 67 60 53 52 52 59 67 79 63 65 63 58 59 60 57 59 71 59 60 76 74 57 47 33 31 31 40 46 67 60
60 71 73 71 66 65 63 66 70 66 65 59 70 72 68 60 58 57 62 91 94 88 99 76 63 47 38 41 37 37 36 51 48
82 66 68 81 80 74 77 75 74 86 77 75 70 76 75 76 68 60 66 66 100 100 100 88 71 62 54 41 41 38 37 46 49
89 85 84 76 87 90 87 77 75 80 83 88 84 88 87 89 84 86 63 67 73 99 98 67 47 75 65 40 47 44 32 35 50
92 100 98 99 91 85 93 89 81 81 80 93 95 99 90 94 99 93 78 65 59 91 100 96 65 56 47 51 58 49 37 34 39
82 82 100 100 100 100 100 94 91 79 80 93 97 98 94 80 84 63 63 64 93 100 100 100 96 73 66 56 54 59 41 38 39
100 99 97 100 100 100 100 100 100 89 78 85 100 100 100 100 94 81 92 100 100 95 96 100 97 82 52 41 52 62 48 50 54
97 100 99 100 93 100 100 100 100 100 97 93 97 100 100 100 100 100 95 97 90 97 100 89 77 70 51 39 46 50 60 61 59
90 88 90 100 100 90 100 100 100 100 100 96 90 100 100 100 100 99 97 99 100 100 100 100 100 94 64 42 43 52 62 74 58
100 100 93 96 100 99 98 100 100 100 100 100 95 82 99 100 98 82 100 100 100 100 100 100 100 88 63 66 51 47 55 73 69
100 100 100 96 100 100 100 100 100 100 100 100 98 100 94 100 100 99 100 100 100 78 90 99 71 79 56 62 87 77 68 86 80
87 87 100 100 100 85 87 97 100 100 97 100 100 100 100 100 100 100 85 76 57 84 100 87 53 40 46 51 60 65 77 78 73
54 74 95 100 100 100 100 100 90 94 100 100 100 100 100 100 97 100 100 96 100 100 66 50 44 42 66 80 83 64 72 70 67
17 21 78 100 100 100 93 100 100 99 97 100 100 100 100 100 92 78 80 94 100 63 49 54 58 60 90 55 53 56 52 73 51
21 18 19 64 92 100 100 100 100 100 97 76 88 100 100 100 100 100 100 100 81 66 75 64 76 96 48 37 43 38 47 47 41
29 24 19 28 69 100 100 100 100 100 100 99 97 100 100 100 85 90 83 78 83 87 96 85 89 60 37 35 38 38 42 36 32
28 33 26 29 58 100 100 100 97 99 95 100 100 100 100 100 100 100 100 90 86 94 87 86 82 56 35 28 36 36 44 34 37
27 39 38 33 64 100 100 100 100 100 100 100 100 100 98 100 100 100 99 100 100 100 100 99 72 55 43 36 42 45 50 46 52

GFSFLT1_250_rhum_123.txt.gz
RH
75 75 70 64 54 53 43 45 44 48 50 68 78 68 57 57 58 56 60 60 54 67 49 48 69 74 56 39 39 36 41 43 55
91 84 71 63 58 62 60 49 47 51 48 66 80 87 62 59 58 56 57 59 52 66 71 81 87 74 66 47 47 41 44 33 42
73 94 82 74 60 63 66 64 53 50 52 55 67 67 68 65 63 58 58 64 59 87 96 100 100 91 74 59 57 48 48 38 34
77 79 90 82 72 79 69 71 70 62 58 63 66 74 72 76 78 77 69 72 82 69 100 100 98 72 59 66 65 47 57 40 31
62 78 95 93 86 94 79 76 80 76 75 77 74 73 72 80 90 88 91 83 79 70 69 88 100 86 64 76 60 48 56 56 43
57 73 90 94 98 96 98 85 79 76 86 88 81 76 76 75 88 98 95 88 74 63 58 80 100 100 99 78 76 54 46 49 52
74 75 90 92 100 100 100 100 97 94 88 88 91 87 88 82 75 79 78 61 61 52 78 100 100 100 95 91 76 55 35 45 52
74 61 79 76 88 100 97 95 100 100 100 100 100 97 92 97 89 86 82 86 90 90 100 98 98 100 99 95 83 53 42 44 59
56 75 65 85 91 100 100 100 100 100 100 100 100 100 96 87 97 100 100 100 97 100 95 93 94 100 100 100 100 74 50 45 54
51 73 76 74 91 92 99 98 100 100 100 100 100 100 98 99 98 97 100 93 82 86 81 100 100 100 92 93 100 79 56 56 64
30 46 75 90 99 100 88 100 100 100 100 100 100 100 100 100 100 93 94 73 98 70 90 92 100 95 66 57 92 80 52 44 55
24 23 31 78 81 93 85 84 98 100 100 100 100 100 100 100 100 96 100 86 92 95 100 96 62 55 58 80 53 50 49 72 68
41 29 25 45 91 81 67 90 98 96 100 100 100 100 100 100 99 94 100 100 100 100 81 68 85 98 68 48 51 47 55 71 51
35 45 31 35 72 66 76 85 100 100 96 94 100 100 100 100 100 100 100 100 100 90 100 100 100 73 60 56 52 59 80 73 46
30 38 43 32 41 56 69 96 96 97 100 100 100 100 100 100 100 100 100 100 96 100 79 68 88 71 43 49 61 65 61 49 37
20 28 40 40 34 48 72 87 100 100 99 100 90 95 100 100 100 100 100 100 96 98 94 100 54 61 68 67 61 73 84 34 28
22 20 28 36 39 28 24 24 98 100 100 100 95 100 100 100 100 100 100 82 99 89 68 94 68 64 100 99 88 84 87 62 46
16 17 23 24 27 33 26 26 50 92 100 98 100 100 100 100 100 100 94 99 100 95 100 100 77 64 90 98 96 90 60 57 38
29 21 19 28 27 33 40 40 33 44 100 100 100 100 100 100 100 100 100 100 100 87 94 95 97 100 91 100 92 75 66 47 51
30 23 19 21 28 38 47 42 52 46 33 58 94 100 100 100 100 100 100 100 100 97 100 95 100 100 97 77 100 97 91 87 62

GFSFLT1_250_rhum_126.txt.gz
RH
89 91 84 76 68 68 62 52 48 45 44 43 45 59 66 60 48 51 52 56 59 53 69 96 92 97 93 91 78 54 54 50 45
100 93 90 85 80 83 72 63 56 53 53 45 48 50 62 68 54 50 55 61 64 66 68 100 100 100 100 97 75 61 51 56 48
57 98 94 92 94 92 83 78 68 66 62 57 50 51 60 67 60 57 55 60 64 79 75 83 100 100 99 82 64 62 62 54 50
45 70 98 100 100 99 92 86 79 72 76 67 68 64 61 72 76 74 72 70 71 70 80 76 77 97 100 100 92 88 65 60 49
37 46 52 85 100 100 100 97 92 87 90 88 72 73 71 72 86 82 75 75 75 72 77 65 63 95 100 100 90 82 71 66 39
18 28 43 67 94 99 95 93 100 100 100 92 88 89 82 74 82 90 88 79 73 53 50 58 66 100 100 100 93 97 86 64 48
18 19 30 40 50 62 87 100 100 100 100 100 100 95 92 91 85 90 97 93 85 81 64 67 87 99 100 99 100 100 100 96 72
26 22 27 38 50 65 72 89 100 100 100 100 100 100 100 100 100 100 100 91 86 99 100 100 98 96 85 99 98 100 100 100 87
32 35 41 71 81 86 86 91 100 100 100 100 100 100 100 100 100 100 98 83 96 100 100 86 70 67 86 100 88 70 99 94 82
37 37 37 33 32 72 96 86 95 99 100 100 100 100 100 100 100 100 100 98 92 76 79 65 89 60 100 96 74 60 49 74 51
59 42 42 36 35 49 95 100 94 83 100 100 100 99 100 100 100 100 100 100 100 98 85 87 95 100 96 86 66 77 60 59 55
56 53 49 41 32 26 36 59 100 100 100 100 100 100 100 100 100 100 100 100 100 100 98 99 100 100 100 100 100 77 65 54 52
53 56 58 47 43 36 27 27 29 96 99 100 89 83 98 100 100 100 100 100 100 95 100 98 90 100 100 99 91 59 47 47 53
49 47 60 61 54 51 40 30 29 28 65 99 89 81 98 100 100 100 100 100 98 100 100 100 100 94 89 86 68 57 46 49 53
52 56 45 53 52 54 49 41 36 31 46 94 95 83 99 90 94 100 100 100 100 100 96 100 100 100 97 78 58 56 50 69 100
44 44 46 45 43 40 48 46 50 42 38 53 82 83 80 99 100 100 100 100 100 100 100 93 100 100 91 75 84 72 51 83 78
39 41 36 36 40 39 43 46 40 54 53 45 41 58 98 100 100 100 99 96 100 100 100 100 89 100 99 97 90 78 53 58 88
32 32 33 38 42 39 38 35 32 37 55 50 42 35 47 81 92 100 100 100 100 100 100 100 100 100 100 93 95 90 96 64 100
29 27 33 40 37 42 43 42 36 35 38 49 43 44 41 65 87 100 100 100 100 100 94 100 100 100 100 100 100 100 93 80 97
29 28 36 42 41 33 38 45 50 41 29 38 49 61 52 51 81 100 100 100 100 100 95 100 100 100 100 100 100 100 85 98 95